Wetterdaten: Sonntag, 09.02.2014
Datum Zeit Temp. Aussen +5cm Feuchte Auss Luftdruck Regen Sonnenschein Regendauer UV Solar Windben
09.02.2014 00:00 5,9 C 3,9 C 78 % 988,4 hPa 0,0 l/m 0 min 0 min 0,0 UV-I 0 W/m 12,9 km/h (3 Bft)
09.02.2014 00:02 5,9 C 3,9 C 78 % 988,5 hPa 0,0 l/m 0 min 0 min 0,0 UV-I 0 W/m 7,7 km/h (2 Bft)
09.02.2014 00:04 5,9 C 3,9 C 77 % 988,5 hPa 0,0 l/m 0 min 0 min 0,0 UV-I 0 W/m 23,2 km/h (4 Bft)
09.02.2014 00:06 5,9 C 3,9 C 77 % 988,5 hPa 0,0 l/m 0 min 0 min 0,0 UV-I 0 W/m 15,4 km/h (3 Bft)
09.02.2014 00:08 5,9 C 4,4 C 77 % 988,5 hPa 0,0 l/m 0 min 0 min 0,0 UV-I 0 W/m 20,6 km/h (4 Bft)
09.02.2014 00:10 5,9 C 3,9 C 77 % 988,6 hPa 0,0 l/m 0 min 0 min 0,0 UV-I 0 W/m 23,2 km/h (4 Bft)
09.02.2014 00:12 5,9 C 3,9 C 77 % 988,5 hPa 0,0 l/m 0 min 0 min 0,0 UV-I 0 W/m 23,2 km/h (4 Bft)
09.02.2014 00:14 5,9 C 3,9 C 77 % 988,6 hPa 0,0 l/m 0 min 0 min 0,0 UV-I 0 W/m 15,4 km/h (3 Bft)
09.02.2014 00:16 5,9 C 3,9 C 77 % 988,6 hPa 0,0 l/m 0 min 0 min 0,0 UV-I 0 W/m 30,9 km/h (5 Bft)
09.02.2014 00:18 5,9 C 3,9 C 77 % 988,5 hPa 0,0 l/m 0 min 0 min 0,0 UV-I 0 W/m 20,6 km/h (4 Bft)
09.02.2014 00:20 5,9 C 3,9 C 77 % 988,6 hPa 0,0 l/m 0 min 0 min 0,0 UV-I 0 W/m 15,4 km/h (3 Bft)
09.02.2014 00:22 5,9 C 4,4 C 77 % 988,6 hPa 0,0 l/m 0 min 0 min 0,0 UV-I 0 W/m 20,6 km/h (4 Bft)
09.02.2014 00:24 5,9 C 3,9 C 77 % 988,6 hPa 0,0 l/m 0 min 0 min 0,0 UV-I 0 W/m 18,0 km/h (3 Bft)
09.02.2014 00:26 5,9 C 3,9 C 77 % 988,7 hPa 0,0 l/m 0 min 0 min 0,0 UV-I 0 W/m 18,0 km/h (3 Bft)
09.02.2014 00:28 5,9 C 3,9 C 77 % 988,6 hPa 0,0 l/m 0 min 0 min 0,0 UV-I 0 W/m 10,3 km/h (2 Bft)
09.02.2014 00:30 5,9 C 3,9 C 77 % 988,7 hPa 0,0 l/m 0 min 0 min 0,0 UV-I 0 W/m 18,0 km/h (3 Bft)
09.02.2014 00:32 5,9 C 3,9 C 77 % 988,6 hPa 0,0 l/m 0 min 0 min 0,0 UV-I 0 W/m 20,6 km/h (4 Bft)
09.02.2014 00:34 5,9 C 3,9 C 77 % 988,6 hPa 0,0 l/m 0 min 0 min 0,0 UV-I 0 W/m 15,4 km/h (3 Bft)
09.02.2014 00:36 5,9 C 3,9 C 77 % 988,7 hPa 0,0 l/m 0 min 0 min 0,0 UV-I 0 W/m 20,6 km/h (4 Bft)
09.02.2014 00:38 5,9 C 3,9 C 77 % 988,6 hPa 0,0 l/m 0 min 0 min 0,0 UV-I 0 W/m 15,4 km/h (3 Bft)
09.02.2014 00:40 5,9 C 3,9 C 77 % 988,7 hPa 0,0 l/m 0 min 0 min 0,0 UV-I 0 W/m 12,9 km/h (3 Bft)
09.02.2014 00:42 5,9 C 3,9 C 77 % 988,6 hPa 0,0 l/m 0 min 0 min 0,0 UV-I 0 W/m 2,6 km/h (1 Bft)
09.02.2014 00:44 5,8 C 3,9 C 77 % 988,8 hPa 0,0 l/m 0 min 0 min 0,0 UV-I 0 W/m 23,2 km/h (4 Bft)
09.02.2014 00:46 5,8 C 3,9 C 78 % 988,7 hPa 0,0 l/m 0 min 0 min 0,0 UV-I 0 W/m 18,0 km/h (3 Bft)
09.02.2014 00:48 5,8 C 3,9 C 78 % 988,6 hPa 0,0 l/m 0 min 0 min 0,0 UV-I 0 W/m 12,9 km/h (3 Bft)
09.02.2014 00:50 5,8 C 3,9 C 78 % 988,6 hPa 0,0 l/m 0 min 0 min 0,0 UV-I 0 W/m 18,0 km/h (3 Bft)
09.02.2014 00:52 5,8 C 3,9 C 78 % 988,6 hPa 0,0 l/m 0 min 0 min 0,0 UV-I 0 W/m 12,9 km/h (3 Bft)
09.02.2014 00:54 5,8 C 3,9 C 78 % 988,7 hPa 0,0 l/m 0 min 0 min 0,0 UV-I 0 W/m 15,4 km/h (3 Bft)
09.02.2014 00:56 5,8 C 3,9 C 78 % 988,7 hPa 0,0 l/m 0 min 0 min 0,0 UV-I 0 W/m 15,4 km/h (3 Bft)
09.02.2014 00:58 5,8 C 3,9 C 78 % 988,8 hPa 0,0 l/m 0 min 0 min 0,0 UV-I 0 W/m 18,0 km/h (3 Bft)
09.02.2014 01:00 5,7 C 3,9 C 78 % 988,9 hPa 0,0 l/m 0 min 0 min 0,0 UV-I 0 W/m 18,0 km/h (3 Bft)
09.02.2014 01:02 5,7 C 3,9 C 78 % 988,9 hPa 0,0 l/m 0 min 0 min 0,0 UV-I 0 W/m 20,6 km/h (4 Bft)
09.02.2014 01:04 5,7 C 3,9 C 78 % 989,0 hPa 0,0 l/m 0 min 0 min 0,0 UV-I 0 W/m 12,9 km/h (3 Bft)
09.02.2014 01:06 5,7 C 3,9 C 78 % 989,1 hPa 0,0 l/m 0 min 0 min 0,0 UV-I 0 W/m 18,0 km/h (3 Bft)
09.02.2014 01:08 5,7 C 3,9 C 78 % 988,9 hPa 0,0 l/m 0 min 0 min 0,0 UV-I 0 W/m 23,2 km/h (4 Bft)
09.02.2014 01:10 5,7 C 3,9 C 78 % 988,8 hPa 0,0 l/m 0 min 0 min 0,0 UV-I 0 W/m 28,3 km/h (4 Bft)
09.02.2014 01:12 5,7 C 3,9 C 78 % 988,9 hPa 0,0 l/m 0 min 0 min 0,0 UV-I 0 W/m 12,9 km/h (3 Bft)
09.02.2014 01:14 5,7 C 3,9 C 78 % 988,9 hPa 0,0 l/m 0 min 0 min 0,0 UV-I 0 W/m 20,6 km/h (4 Bft)
09.02.2014 01:16 5,7 C 3,9 C 78 % 989,0 hPa 0,0 l/m 0 min 0 min 0,0 UV-I 0 W/m 10,3 km/h (2 Bft)
09.02.2014 01:18 5,7 C 3,9 C 78 % 989,0 hPa 0,0 l/m 0 min 0 min 0,0 UV-I 0 W/m 12,9 km/h (3 Bft)
09.02.2014 01:20 5,7 C 3,9 C 78 % 989,1 hPa 0,0 l/m 0 min 0 min 0,0 UV-I 0 W/m 18,0 km/h (3 Bft)
09.02.2014 01:22 5,7 C 3,9 C 78 % 989,0 hPa 0,0 l/m 0 min 0 min 0,0 UV-I 0 W/m 20,6 km/h (4 Bft)
09.02.2014 01:24 5,7 C 3,9 C 78 % 989,1 hPa 0,0 l/m 0 min 0 min 0,0 UV-I 0 W/m 20,6 km/h (4 Bft)
09.02.2014 01:26 5,7 C 3,9 C 78 % 988,9 hPa 0,0 l/m 0 min 0 min 0,0 UV-I 0 W/m 20,6 km/h (4 Bft)
09.02.2014 01:28 5,7 C 3,9 C 77 % 989,0 hPa 0,0 l/m 0 min 0 min 0,0 UV-I 0 W/m 28,3 km/h (4 Bft)
09.02.2014 01:30 5,7 C 3,9 C 77 % 989,0 hPa 0,0 l/m 0 min 0 min 0,0 UV-I 0 W/m 23,2 km/h (4 Bft)
09.02.2014 01:32 5,7 C 3,9 C 77 % 989,0 hPa 0,0 l/m 0 min 0 min 0,0 UV-I 0 W/m 15,4 km/h (3 Bft)
09.02.2014 01:34 5,7 C 3,9 C 77 % 989,1 hPa 0,0 l/m 0 min 0 min 0,0 UV-I 0 W/m 18,0 km/h (3 Bft)
09.02.2014 01:36 5,7 C 3,9 C 77 % 989,0 hPa 0,0 l/m 0 min 0 min 0,0 UV-I 0 W/m 10,3 km/h (2 Bft)
09.02.2014 01:38 5,8 C 3,9 C 77 % 989,2 hPa 0,0 l/m 0 min 0 min 0,0 UV-I 0 W/m 25,7 km/h (4 Bft)
09.02.2014 01:40 5,8 C 3,9 C 77 % 989,1 hPa 0,0 l/m 0 min 0 min 0,0 UV-I 0 W/m 15,4 km/h (3 Bft)
09.02.2014 01:42 5,8 C 4,4 C 77 % 989,2 hPa 0,0 l/m 0 min 0 min 0,0 UV-I 0 W/m 36,0 km/h (5 Bft)
09.02.2014 01:44 5,8 C 4,4 C 77 % 989,3 hPa 0,0 l/m 0 min 0 min 0,0 UV-I 0 W/m 25,7 km/h (4 Bft)
09.02.2014 01:46 5,9 C 4,4 C 77 % 989,3 hPa 0,0 l/m 0 min 0 min 0,0 UV-I 0 W/m 18,0 km/h (3 Bft)
09.02.2014 01:48 5,9 C 4,4 C 77 % 989,2 hPa 0,0 l/m 0 min 0 min 0,0 UV-I 0 W/m 12,9 km/h (3 Bft)
09.02.2014 01:50 5,9 C 4,4 C 77 % 989,3 hPa 0,0 l/m 0 min 0 min 0,0 UV-I 0 W/m 28,3 km/h (4 Bft)
09.02.2014 01:52 6,0 C 4,4 C 77 % 989,2 hPa 0,0 l/m 0 min 0 min 0,0 UV-I 0 W/m 15,4 km/h (3 Bft)
09.02.2014 01:54 6,0 C 4,4 C 77 % 989,2 hPa 0,0 l/m 0 min 0 min 0,0 UV-I 0 W/m 20,6 km/h (4 Bft)
09.02.2014 01:56 6,0 C 4,4 C 77 % 989,2 hPa 0,0 l/m 0 min 0 min 0,0 UV-I 0 W/m 7,7 km/h (2 Bft)
09.02.2014 01:58 6,0 C 4,4 C 77 % 989,2 hPa 0,0 l/m 0 min 0 min 0,0 UV-I 0 W/m 20,6 km/h (4 Bft)
09.02.2014 02:00 6,1 C 4,4 C 77 % 989,0 hPa 0,0 l/m 0 min 0 min 0,0 UV-I 0 W/m 20,6 km/h (4 Bft)
09.02.2014 02:02 6,1 C 4,4 C 77 % 989,2 hPa 0,0 l/m 0 min 0 min 0,0 UV-I 0 W/m 15,4 km/h (3 Bft)
09.02.2014 02:04 6,1 C 4,4 C 77 % 988,8 hPa 0,0 l/m 0 min 0 min 0,0 UV-I 0 W/m 54,1 km/h (7 Bft)
09.02.2014 02:06 6,1 C 4,4 C 77 % 989,1 hPa 0,0 l/m 0 min 0 min 0,0 UV-I 0 W/m 23,2 km/h (4 Bft)
09.02.2014 02:08 6,1 C 4,4 C 77 % 989,1 hPa 0,0 l/m 0 min 0 min 0,0 UV-I 0 W/m 18,0 km/h (3 Bft)
09.02.2014 02:10 6,2 C 4,4 C 77 % 989,0 hPa 0,0 l/m 0 min 0 min 0,0 UV-I 0 W/m 23,2 km/h (4 Bft)
09.02.2014 02:12 6,2 C 4,4 C 77 % 989,1 hPa 0,0 l/m 0 min 0 min 0,0 UV-I 0 W/m 23,2 km/h (4 Bft)
09.02.2014 02:14 6,2 C 4,4 C 77 % 989,1 hPa 0,0 l/m 0 min 0 min 0,0 UV-I 0 W/m 25,7 km/h (4 Bft)
09.02.2014 02:16 6,2 C 5,0 C 77 % 989,2 hPa 0,0 l/m 0 min 0 min 0,0 UV-I 0 W/m 28,3 km/h (4 Bft)
09.02.2014 02:18 6,2 C 5,0 C 77 % 989,1 hPa 0,0 l/m 0 min 0 min 0,0 UV-I 0 W/m 28,3 km/h (4 Bft)
09.02.2014 02:20 6,3 C 5,0 C 77 % 989,0 hPa 0,0 l/m 0 min 0 min 0,0 UV-I 0 W/m 25,7 km/h (4 Bft)
09.02.2014 02:22 6,3 C 5,0 C 77 % 989,0 hPa 0,0 l/m 0 min 0 min 0,0 UV-I 0 W/m 23,2 km/h (4 Bft)
09.02.2014 02:24 6,3 C 5,0 C 77 % 989,1 hPa 0,0 l/m 0 min 0 min 0,0 UV-I 0 W/m 20,6 km/h (4 Bft)
09.02.2014 02:26 6,4 C 5,0 C 76 % 989,0 hPa 0,0 l/m 0 min 0 min 0,0 UV-I 0 W/m 25,7 km/h (4 Bft)
09.02.2014 02:28 6,4 C 5,0 C 77 % 989,1 hPa 0,0 l/m 0 min 0 min 0,0 UV-I 0 W/m 25,7 km/h (4 Bft)
09.02.2014 02:30 6,4 C 5,0 C 77 % 989,1 hPa 0,0 l/m 0 min 0 min 0,0 UV-I 0 W/m 18,0 km/h (3 Bft)
09.02.2014 02:32 6,4 C 5,0 C 77 % 989,0 hPa 0,0 l/m 0 min 0 min 0,0 UV-I 0 W/m 23,2 km/h (4 Bft)
09.02.2014 02:34 6,4 C 5,0 C 77 % 989,0 hPa 0,0 l/m 0 min 0 min 0,0 UV-I 0 W/m 28,3 km/h (4 Bft)
09.02.2014 02:36 6,4 C 5,0 C 77 % 988,9 hPa 0,0 l/m 0 min 0 min 0,0 UV-I 0 W/m 20,6 km/h (4 Bft)
09.02.2014 02:38 6,4 C 5,0 C 77 % 988,9 hPa 0,0 l/m 0 min 0 min 0,0 UV-I 0 W/m 15,4 km/h (3 Bft)
09.02.2014 02:40 6,4 C 5,0 C 77 % 988,9 hPa 0,0 l/m 0 min 0 min 0,0 UV-I 0 W/m 30,9 km/h (5 Bft)
09.02.2014 02:42 6,4 C 5,0 C 77 % 989,0 hPa 0,0 l/m 0 min 0 min 0,0 UV-I 0 W/m 23,2 km/h (4 Bft)
09.02.2014 02:44 6,4 C 5,0 C 77 % 989,1 hPa 0,0 l/m 0 min 0 min 0,0 UV-I 0 W/m 18,0 km/h (3 Bft)
09.02.2014 02:46 6,4 C 5,0 C 77 % 988,9 hPa 0,0 l/m 0 min 0 min 0,0 UV-I 0 W/m 25,7 km/h (4 Bft)
09.02.2014 02:48 6,4 C 5,0 C 77 % 989,1 hPa 0,0 l/m 0 min 0 min 0,0 UV-I 0 W/m 15,4 km/h (3 Bft)
09.02.2014 02:50 6,5 C 5,0 C 77 % 989,0 hPa 0,0 l/m 0 min 0 min 0,0 UV-I 0 W/m 18,0 km/h (3 Bft)
09.02.2014 02:52 6,5 C 5,0 C 77 % 989,0 hPa 0,0 l/m 0 min 0 min 0,0 UV-I 0 W/m 23,2 km/h (4 Bft)
09.02.2014 02:54 6,5 C 5,0 C 77 % 988,9 hPa 0,0 l/m 0 min 0 min 0,0 UV-I 0 W/m 18,0 km/h (3 Bft)
09.02.2014 02:56 6,5 C 5,0 C 77 % 989,0 hPa 0,0 l/m 0 min 0 min 0,0 UV-I 0 W/m 38,6 km/h (5 Bft)
09.02.2014 02:58 6,5 C 5,0 C 77 % 989,2 hPa 0,0 l/m 0 min 0 min 0,0 UV-I 0 W/m 23,2 km/h (4 Bft)
09.02.2014 03:00 6,6 C 5,0 C 77 % 989,1 hPa 0,0 l/m 0 min 2 min 0,0 UV-I 0 W/m 20,6 km/h (4 Bft)
09.02.2014 03:02 6,6 C 5,0 C 77 % 989,1 hPa 0,0 l/m 0 min 2 min 0,0 UV-I 0 W/m 15,4 km/h (3 Bft)
09.02.2014 03:04 6,6 C 4,4 C 77 % 989,1 hPa 0,0 l/m 0 min 2 min 0,0 UV-I 0 W/m 20,6 km/h (4 Bft)
09.02.2014 03:06 6,5 C 4,4 C 78 % 989,1 hPa 0,0 l/m 0 min 2 min 0,0 UV-I 0 W/m 46,3 km/h (6 Bft)
09.02.2014 03:08 6,5 C 4,4 C 79 % 989,0 hPa 0,0 l/m 0 min 2 min 0,0 UV-I 0 W/m 25,7 km/h (4 Bft)
09.02.2014 03:10 6,4 C 3,9 C 79 % 989,1 hPa 0,0 l/m 0 min 2 min 0,0 UV-I 0 W/m 20,6 km/h (4 Bft)
09.02.2014 03:12 6,4 C 3,9 C 79 % 989,2 hPa 0,0 l/m 0 min 2 min 0,0 UV-I 0 W/m 28,3 km/h (4 Bft)
09.02.2014 03:14 6,4 C 4,4 C 80 % 989,0 hPa 0,0 l/m 0 min 2 min 0,0 UV-I 0 W/m 28,3 km/h (4 Bft)
09.02.2014 03:16 6,4 C 4,4 C 80 % 989,1 hPa 0,0 l/m 0 min 2 min 0,0 UV-I 0 W/m 25,7 km/h (4 Bft)
09.02.2014 03:18 6,3 C 4,4 C 80 % 989,1 hPa 0,0 l/m 0 min 0 min 0,0 UV-I 0 W/m 25,7 km/h (4 Bft)
09.02.2014 03:20 6,3 C 4,4 C 80 % 989,2 hPa 0,0 l/m 0 min 2 min 0,0 UV-I 0 W/m 28,3 km/h (4 Bft)
09.02.2014 03:22 6,3 C 4,4 C 80 % 989,0 hPa 0,0 l/m 0 min 2 min 0,0 UV-I 0 W/m 15,4 km/h (3 Bft)
09.02.2014 03:24 6,2 C 4,4 C 80 % 988,9 hPa 0,0 l/m 0 min 0 min 0,0 UV-I 0 W/m 25,7 km/h (4 Bft)
09.02.2014 03:26 6,2 C 4,4 C 80 % 989,1 hPa 0,0 l/m 0 min 0 min 0,0 UV-I 0 W/m 28,3 km/h (4 Bft)
09.02.2014 03:28 6,2 C 4,4 C 80 % 989,2 hPa 0,0 l/m 0 min 0 min 0,0 UV-I 0 W/m 12,9 km/h (3 Bft)
09.02.2014 03:30 6,2 C 4,4 C 80 % 989,0 hPa 0,0 l/m 0 min 0 min 0,0 UV-I 0 W/m 18,0 km/h (3 Bft)
09.02.2014 03:32 6,2 C 4,4 C 80 % 989,1 hPa 0,0 l/m 0 min 0 min 0,0 UV-I 0 W/m 25,7 km/h (4 Bft)
09.02.2014 03:34 6,2 C 4,4 C 80 % 989,1 hPa 0,0 l/m 0 min 0 min 0,0 UV-I 0 W/m 18,0 km/h (3 Bft)
09.02.2014 03:36 6,2 C 4,4 C 79 % 989,1 hPa 0,0 l/m 0 min 0 min 0,0 UV-I 0 W/m 25,7 km/h (4 Bft)
09.02.2014 03:38 6,2 C 4,4 C 79 % 989,2 hPa 0,0 l/m 0 min 0 min 0,0 UV-I 0 W/m 33,5 km/h (5 Bft)
09.02.2014 03:40 6,2 C 4,4 C 79 % 989,1 hPa 0,0 l/m 0 min 0 min 0,0 UV-I 0 W/m 10,3 km/h (2 Bft)
09.02.2014 03:42 6,3 C 4,4 C 79 % 989,0 hPa 0,0 l/m 0 min 0 min 0,0 UV-I 0 W/m 23,2 km/h (4 Bft)
09.02.2014 03:44 6,3 C 4,4 C 79 % 989,0 hPa 0,0 l/m 0 min 0 min 0,0 UV-I 0 W/m 18,0 km/h (3 Bft)
09.02.2014 03:46 6,3 C 5,0 C 79 % 989,0 hPa 0,0 l/m 0 min 0 min 0,0 UV-I 0 W/m 20,6 km/h (4 Bft)
09.02.2014 03:48 6,3 C 5,0 C 79 % 989,1 hPa 0,0 l/m 0 min 0 min 0,0 UV-I 0 W/m 28,3 km/h (4 Bft)
09.02.2014 03:50 6,3 C 4,4 C 79 % 989,0 hPa 0,0 l/m 0 min 0 min 0,0 UV-I 0 W/m 15,4 km/h (3 Bft)
09.02.2014 03:52 6,3 C 5,0 C 79 % 989,1 hPa 0,0 l/m 0 min 0 min 0,0 UV-I 0 W/m 36,0 km/h (5 Bft)
09.02.2014 03:54 6,3 C 4,4 C 79 % 988,9 hPa 0,0 l/m 0 min 0 min 0,0 UV-I 0 W/m 23,2 km/h (4 Bft)
09.02.2014 03:56 6,3 C 4,4 C 79 % 988,8 hPa 0,0 l/m 0 min 0 min 0,0 UV-I 0 W/m 28,3 km/h (4 Bft)
09.02.2014 03:58 6,3 C 4,4 C 79 % 988,9 hPa 0,0 l/m 0 min 0 min 0,0 UV-I 0 W/m 25,7 km/h (4 Bft)
09.02.2014 04:00 6,3 C 4,4 C 79 % 988,8 hPa 0,0 l/m 0 min 0 min 0,0 UV-I 0 W/m 28,3 km/h (4 Bft)
09.02.2014 04:02 6,3 C 4,4 C 79 % 989,0 hPa 0,0 l/m 0 min 0 min 0,0 UV-I 0 W/m 15,4 km/h (3 Bft)
09.02.2014 04:04 6,3 C 4,4 C 79 % 989,2 hPa 0,0 l/m 0 min 0 min 0,0 UV-I 0 W/m 28,3 km/h (4 Bft)
09.02.2014 04:06 6,3 C 4,4 C 79 % 989,1 hPa 0,0 l/m 0 min 0 min 0,0 UV-I 0 W/m 28,3 km/h (4 Bft)
09.02.2014 04:08 6,3 C 4,4 C 79 % 989,2 hPa 0,0 l/m 0 min 0 min 0,0 UV-I 0 W/m 23,2 km/h (4 Bft)
09.02.2014 04:10 6,3 C 4,4 C 79 % 989,2 hPa 0,0 l/m 0 min 0 min 0,0 UV-I 0 W/m 48,9 km/h (6 Bft)
09.02.2014 04:12 6,3 C 4,4 C 79 % 989,2 hPa 0,0 l/m 0 min 0 min 0,0 UV-I 0 W/m 25,7 km/h (4 Bft)
09.02.2014 04:14 6,3 C 4,4 C 79 % 989,4 hPa 0,0 l/m 0 min 0 min 0,0 UV-I 0 W/m 10,3 km/h (2 Bft)
09.02.2014 04:16 6,3 C 4,4 C 79 % 989,3 hPa 0,0 l/m 0 min 0 min 0,0 UV-I 0 W/m 20,6 km/h (4 Bft)
09.02.2014 04:18 6,3 C 4,4 C 79 % 989,3 hPa 0,0 l/m 0 min 0 min 0,0 UV-I 0 W/m 20,6 km/h (4 Bft)
09.02.2014 04:20 6,3 C 4,4 C 79 % 989,4 hPa 0,0 l/m 0 min 0 min 0,0 UV-I 0 W/m 18,0 km/h (3 Bft)
09.02.2014 04:22 6,2 C 4,4 C 79 % 989,3 hPa 0,0 l/m 0 min 0 min 0,0 UV-I 0 W/m 23,2 km/h (4 Bft)
09.02.2014 04:24 6,3 C 4,4 C 79 % 989,4 hPa 0,0 l/m 0 min 0 min 0,0 UV-I 0 W/m 23,2 km/h (4 Bft)
09.02.2014 04:26 6,3 C 4,4 C 79 % 989,5 hPa 0,0 l/m 0 min 0 min 0,0 UV-I 0 W/m 23,2 km/h (4 Bft)
09.02.2014 04:28 6,3 C 4,4 C 79 % 989,5 hPa 0,0 l/m 0 min 0 min 0,0 UV-I 0 W/m 23,2 km/h (4 Bft)
09.02.2014 04:30 6,2 C 4,4 C 79 % 989,4 hPa 0,0 l/m 0 min 0 min 0,0 UV-I 0 W/m 15,4 km/h (3 Bft)
09.02.2014 04:32 6,3 C 4,4 C 79 % 989,5 hPa 0,0 l/m 0 min 0 min 0,0 UV-I 0 W/m 23,2 km/h (4 Bft)
09.02.2014 04:34 6,2 C 4,4 C 79 % 989,7 hPa 0,0 l/m 0 min 0 min 0,0 UV-I 0 W/m 28,3 km/h (4 Bft)
09.02.2014 04:36 6,2 C 4,4 C 79 % 989,7 hPa 0,0 l/m 0 min 0 min 0,0 UV-I 0 W/m 20,6 km/h (4 Bft)
09.02.2014 04:38 6,2 C 4,4 C 79 % 989,6 hPa 0,0 l/m 0 min 0 min 0,0 UV-I 0 W/m 28,3 km/h (4 Bft)
09.02.2014 04:40 6,2 C 4,4 C 79 % 989,6 hPa 0,0 l/m 0 min 0 min 0,0 UV-I 0 W/m 25,7 km/h (4 Bft)
09.02.2014 04:42 6,2 C 4,4 C 79 % 989,6 hPa 0,0 l/m 0 min 0 min 0,0 UV-I 0 W/m 10,3 km/h (2 Bft)
09.02.2014 04:44 6,2 C 4,4 C 79 % 989,8 hPa 0,0 l/m 0 min 0 min 0,0 UV-I 0 W/m 28,3 km/h (4 Bft)
09.02.2014 04:46 6,2 C 4,4 C 79 % 989,7 hPa 0,0 l/m 0 min 0 min 0,0 UV-I 0 W/m 23,2 km/h (4 Bft)
09.02.2014 04:48 6,2 C 4,4 C 79 % 989,8 hPa 0,0 l/m 0 min 0 min 0,0 UV-I 0 W/m 23,2 km/h (4 Bft)
09.02.2014 04:50 6,2 C 4,4 C 79 % 989,9 hPa 0,0 l/m 0 min 0 min 0,0 UV-I 0 W/m 12,9 km/h (3 Bft)
09.02.2014 04:52 6,2 C 4,4 C 79 % 989,9 hPa 0,0 l/m 0 min 0 min 0,0 UV-I 0 W/m 30,9 km/h (5 Bft)
09.02.2014 04:54 6,2 C 4,4 C 79 % 989,9 hPa 0,0 l/m 0 min 0 min 0,0 UV-I 0 W/m 23,2 km/h (4 Bft)
09.02.2014 04:56 6,2 C 4,4 C 79 % 989,9 hPa 0,0 l/m 0 min 0 min 0,0 UV-I 0 W/m 12,9 km/h (3 Bft)
09.02.2014 04:58 6,2 C 4,4 C 79 % 989,8 hPa 0,0 l/m 0 min 0 min 0,0 UV-I 0 W/m 20,6 km/h (4 Bft)
09.02.2014 05:00 6,2 C 4,4 C 79 % 989,8 hPa 0,0 l/m 0 min 0 min 0,0 UV-I 0 W/m 23,2 km/h (4 Bft)
09.02.2014 05:02 6,1 C 4,4 C 79 % 989,9 hPa 0,0 l/m 0 min 0 min 0,0 UV-I 0 W/m 41,2 km/h (6 Bft)
09.02.2014 05:04 6,1 C 4,4 C 79 % 989,9 hPa 0,0 l/m 0 min 0 min 0,0 UV-I 0 W/m 18,0 km/h (3 Bft)
09.02.2014 05:06 6,1 C 4,4 C 79 % 990,0 hPa 0,0 l/m 0 min 0 min 0,0 UV-I 0 W/m 36,0 km/h (5 Bft)
09.02.2014 05:08 6,1 C 4,4 C 79 % 989,9 hPa 0,0 l/m 0 min 0 min 0,0 UV-I 0 W/m 33,5 km/h (5 Bft)
09.02.2014 05:10 6,1 C 4,4 C 79 % 989,9 hPa 0,0 l/m 0 min 0 min 0,0 UV-I 0 W/m 33,5 km/h (5 Bft)
09.02.2014 05:12 6,1 C 4,4 C 79 % 989,9 hPa 0,0 l/m 0 min 0 min 0,0 UV-I 0 W/m 20,6 km/h (4 Bft)
09.02.2014 05:14 6,1 C 4,4 C 79 % 989,8 hPa 0,0 l/m 0 min 0 min 0,0 UV-I 0 W/m 18,0 km/h (3 Bft)
09.02.2014 05:16 6,1 C 4,4 C 79 % 989,9 hPa 0,0 l/m 0 min 0 min 0,0 UV-I 0 W/m 20,6 km/h (4 Bft)
09.02.2014 05:18 6,1 C 4,4 C 79 % 989,9 hPa 0,0 l/m 0 min 0 min 0,0 UV-I 0 W/m 28,3 km/h (4 Bft)
09.02.2014 05:20 6,1 C 4,4 C 79 % 989,9 hPa 0,0 l/m 0 min 0 min 0,0 UV-I 0 W/m 18,0 km/h (3 Bft)
09.02.2014 05:22 6,1 C 4,4 C 79 % 989,9 hPa 0,0 l/m 0 min 0 min 0,0 UV-I 0 W/m 23,2 km/h (4 Bft)
09.02.2014 05:24 6,1 C 4,4 C 79 % 989,9 hPa 0,0 l/m 0 min 0 min 0,0 UV-I 0 W/m 30,9 km/h (5 Bft)
09.02.2014 05:26 6,1 C 4,4 C 79 % 990,0 hPa 0,0 l/m 0 min 0 min 0,0 UV-I 0 W/m 18,0 km/h (3 Bft)
09.02.2014 05:28 6,1 C 4,4 C 79 % 990,0 hPa 0,0 l/m 0 min 0 min 0,0 UV-I 0 W/m 12,9 km/h (3 Bft)
09.02.2014 05:30 6,1 C 4,4 C 79 % 990,0 hPa 0,0 l/m 0 min 0 min 0,0 UV-I 0 W/m 28,3 km/h (4 Bft)
09.02.2014 05:32 6,1 C 4,4 C 79 % 990,0 hPa 0,0 l/m 0 min 0 min 0,0 UV-I 0 W/m 12,9 km/h (3 Bft)
09.02.2014 05:34 6,1 C 4,4 C 79 % 990,0 hPa 0,0 l/m 0 min 0 min 0,0 UV-I 0 W/m 41,2 km/h (6 Bft)
09.02.2014 05:36 6,1 C 4,4 C 79 % 990,0 hPa 0,0 l/m 0 min 0 min 0,0 UV-I 0 W/m 15,4 km/h (3 Bft)
09.02.2014 05:38 6,1 C 4,4 C 79 % 990,0 hPa 0,0 l/m 0 min 0 min 0,0 UV-I 0 W/m 18,0 km/h (3 Bft)
09.02.2014 05:40 6,1 C 4,4 C 79 % 989,9 hPa 0,0 l/m 0 min 0 min 0,0 UV-I 0 W/m 10,3 km/h (2 Bft)
09.02.2014 05:42 6,1 C 4,4 C 79 % 989,9 hPa 0,0 l/m 0 min 0 min 0,0 UV-I 0 W/m 20,6 km/h (4 Bft)
09.02.2014 05:44 6,1 C 4,4 C 79 % 989,9 hPa 0,0 l/m 0 min 0 min 0,0 UV-I 0 W/m 18,0 km/h (3 Bft)
09.02.2014 05:46 6,1 C 4,4 C 79 % 990,0 hPa 0,0 l/m 0 min 0 min 0,0 UV-I 0 W/m 36,0 km/h (5 Bft)
09.02.2014 05:48 6,1 C 4,4 C 79 % 989,9 hPa 0,0 l/m 0 min 0 min 0,0 UV-I 0 W/m 30,9 km/h (5 Bft)
09.02.2014 05:50 6,1 C 4,4 C 79 % 989,9 hPa 0,0 l/m 0 min 0 min 0,0 UV-I 0 W/m 18,0 km/h (3 Bft)
09.02.2014 05:52 6,1 C 4,4 C 79 % 989,8 hPa 0,0 l/m 0 min 0 min 0,0 UV-I 0 W/m 25,7 km/h (4 Bft)
09.02.2014 05:54 6,1 C 4,4 C 79 % 989,8 hPa 0,0 l/m 0 min 0 min 0,0 UV-I 0 W/m 28,3 km/h (4 Bft)
09.02.2014 05:56 6,1 C 4,4 C 79 % 989,8 hPa 0,0 l/m 0 min 0 min 0,0 UV-I 0 W/m 10,3 km/h (2 Bft)
09.02.2014 05:58 6,0 C 4,4 C 78 % 989,9 hPa 0,0 l/m 0 min 0 min 0,0 UV-I 0 W/m 28,3 km/h (4 Bft)
09.02.2014 06:00 6,0 C 4,4 C 78 % 989,9 hPa 0,0 l/m 0 min 0 min 0,0 UV-I 0 W/m 28,3 km/h (4 Bft)
09.02.2014 06:02 6,0 C 4,4 C 78 % 989,9 hPa 0,0 l/m 0 min 0 min 0,0 UV-I 0 W/m 25,7 km/h (4 Bft)
09.02.2014 06:04 6,0 C 4,4 C 78 % 989,9 hPa 0,0 l/m 0 min 0 min 0,0 UV-I 0 W/m 25,7 km/h (4 Bft)
09.02.2014 06:06 6,0 C 4,4 C 78 % 989,9 hPa 0,0 l/m 0 min 0 min 0,0 UV-I 0 W/m 41,2 km/h (6 Bft)
09.02.2014 06:08 6,0 C 4,4 C 78 % 989,9 hPa 0,0 l/m 0 min 0 min 0,0 UV-I 0 W/m 33,5 km/h (5 Bft)
09.02.2014 06:10 6,0 C 4,4 C 78 % 990,0 hPa 0,0 l/m 0 min 0 min 0,0 UV-I 0 W/m 18,0 km/h (3 Bft)
09.02.2014 06:12 6,0 C 4,4 C 78 % 990,0 hPa 0,0 l/m 0 min 0 min 0,0 UV-I 0 W/m 20,6 km/h (4 Bft)
09.02.2014 06:14 6,0 C 4,4 C 78 % 990,0 hPa 0,0 l/m 0 min 0 min 0,0 UV-I 0 W/m 18,0 km/h (3 Bft)
09.02.2014 06:16 6,0 C 4,4 C 78 % 990,0 hPa 0,0 l/m 0 min 0 min 0,0 UV-I 0 W/m 15,4 km/h (3 Bft)
09.02.2014 06:18 6,0 C 4,4 C 78 % 990,1 hPa 0,0 l/m 0 min 0 min 0,0 UV-I 0 W/m 5,1 km/h (1 Bft)
09.02.2014 06:20 6,0 C 4,4 C 78 % 990,0 hPa 0,0 l/m 0 min 0 min 0,0 UV-I 0 W/m 12,9 km/h (3 Bft)
09.02.2014 06:22 5,9 C 4,4 C 78 % 990,4 hPa 0,0 l/m 0 min 0 min 0,0 UV-I 0 W/m 28,3 km/h (4 Bft)
09.02.2014 06:24 5,9 C 4,4 C 78 % 990,1 hPa 0,0 l/m 0 min 0 min 0,0 UV-I 0 W/m 23,2 km/h (4 Bft)
09.02.2014 06:26 5,9 C 4,4 C 78 % 990,2 hPa 0,0 l/m 0 min 0 min 0,0 UV-I 0 W/m 15,4 km/h (3 Bft)
09.02.2014 06:28 5,9 C 4,4 C 78 % 990,3 hPa 0,0 l/m 0 min 0 min 0,0 UV-I 0 W/m 23,2 km/h (4 Bft)
09.02.2014 06:30 5,9 C 4,4 C 78 % 990,3 hPa 0,0 l/m 0 min 0 min 0,0 UV-I 0 W/m 20,6 km/h (4 Bft)
09.02.2014 06:32 6,0 C 4,4 C 78 % 990,4 hPa 0,0 l/m 0 min 0 min 0,0 UV-I 0 W/m 30,9 km/h (5 Bft)
09.02.2014 06:34 5,9 C 4,4 C 78 % 990,2 hPa 0,0 l/m 0 min 0 min 0,0 UV-I 0 W/m 12,9 km/h (3 Bft)
09.02.2014 06:36 6,0 C 4,4 C 78 % 990,2 hPa 0,0 l/m 0 min 0 min 0,0 UV-I 0 W/m 23,2 km/h (4 Bft)
09.02.2014 06:38 6,0 C 4,4 C 78 % 990,3 hPa 0,0 l/m 0 min 0 min 0,0 UV-I 0 W/m 18,0 km/h (3 Bft)
09.02.2014 06:40 6,0 C 4,4 C 78 % 990,3 hPa 0,0 l/m 0 min 0 min 0,0 UV-I 0 W/m 12,9 km/h (3 Bft)
09.02.2014 06:42 6,0 C 4,4 C 78 % 990,4 hPa 0,0 l/m 0 min 0 min 0,0 UV-I 0 W/m 25,7 km/h (4 Bft)
09.02.2014 06:44 6,0 C 4,4 C 78 % 990,2 hPa 0,0 l/m 0 min 0 min 0,0 UV-I 0 W/m 15,4 km/h (3 Bft)
09.02.2014 06:46 6,0 C 4,4 C 78 % 990,3 hPa 0,0 l/m 0 min 0 min 0,0 UV-I 0 W/m 12,9 km/h (3 Bft)
09.02.2014 06:48 5,9 C 4,4 C 78 % 990,3 hPa 0,0 l/m 0 min 0 min 0,0 UV-I 0 W/m 20,6 km/h (4 Bft)
09.02.2014 06:50 5,9 C 4,4 C 77 % 990,5 hPa 0,0 l/m 0 min 0 min 0,0 UV-I 0 W/m 20,6 km/h (4 Bft)
09.02.2014 06:52 5,9 C 4,4 C 77 % 990,5 hPa 0,0 l/m 0 min 0 min 0,0 UV-I 0 W/m 7,7 km/h (2 Bft)
09.02.2014 06:54 5,9 C 4,4 C 77 % 990,5 hPa 0,0 l/m 0 min 0 min 0,0 UV-I 0 W/m 12,9 km/h (3 Bft)
09.02.2014 06:56 5,9 C 4,4 C 77 % 990,6 hPa 0,0 l/m 0 min 0 min 0,0 UV-I 0 W/m 28,3 km/h (4 Bft)
09.02.2014 06:58 5,9 C 4,4 C 77 % 990,7 hPa 0,0 l/m 0 min 0 min 0,0 UV-I 0 W/m 28,3 km/h (4 Bft)
09.02.2014 07:00 5,9 C 4,4 C 77 % 990,6 hPa 0,0 l/m 0 min 0 min 0,0 UV-I 0 W/m 15,4 km/h (3 Bft)
09.02.2014 07:02 5,9 C 4,4 C 77 % 990,5 hPa 0,0 l/m 0 min 0 min 0,0 UV-I 0 W/m 30,9 km/h (5 Bft)
09.02.2014 07:04 5,9 C 4,4 C 77 % 990,6 hPa 0,0 l/m 0 min 0 min 0,0 UV-I 0 W/m 25,7 km/h (4 Bft)
09.02.2014 07:06 5,9 C 4,4 C 77 % 990,7 hPa 0,0 l/m 0 min 0 min 0,0 UV-I 0 W/m 18,0 km/h (3 Bft)
09.02.2014 07:08 5,9 C 4,4 C 77 % 990,9 hPa 0,0 l/m 0 min 0 min 0,0 UV-I 0 W/m 20,6 km/h (4 Bft)
09.02.2014 07:10 5,9 C 4,4 C 77 % 990,6 hPa 0,0 l/m 0 min 0 min 0,0 UV-I 0 W/m 33,5 km/h (5 Bft)
09.02.2014 07:12 5,8 C 4,4 C 76 % 990,6 hPa 0,0 l/m 0 min 0 min 0,0 UV-I 0 W/m 28,3 km/h (4 Bft)
09.02.2014 07:14 5,8 C 4,4 C 76 % 990,7 hPa 0,0 l/m 0 min 0 min 0,0 UV-I 0 W/m 23,2 km/h (4 Bft)
09.02.2014 07:16 5,8 C 4,4 C 76 % 990,7 hPa 0,0 l/m 0 min 0 min 0,0 UV-I 0 W/m 18,0 km/h (3 Bft)
09.02.2014 07:18 5,8 C 4,4 C 76 % 990,6 hPa 0,0 l/m 0 min 0 min 0,0 UV-I 0 W/m 36,0 km/h (5 Bft)
09.02.2014 07:20 5,8 C 3,9 C 76 % 990,8 hPa 0,0 l/m 0 min 0 min 0,0 UV-I 0 W/m 23,2 km/h (4 Bft)
09.02.2014 07:22 5,8 C 4,4 C 76 % 990,8 hPa 0,0 l/m 0 min 0 min 0,0 UV-I 0 W/m 23,2 km/h (4 Bft)
09.02.2014 07:24 5,8 C 4,4 C 76 % 990,9 hPa 0,0 l/m 0 min 0 min 0,0 UV-I 0 W/m 10,3 km/h (2 Bft)
09.02.2014 07:26 5,8 C 4,4 C 76 % 990,9 hPa 0,0 l/m 0 min 0 min 0,0 UV-I 0 W/m 20,6 km/h (4 Bft)
09.02.2014 07:28 5,8 C 4,4 C 76 % 990,9 hPa 0,0 l/m 0 min 0 min 0,0 UV-I 0 W/m 15,4 km/h (3 Bft)
09.02.2014 07:30 5,8 C 4,4 C 76 % 990,9 hPa 0,0 l/m 0 min 0 min 0,0 UV-I 0 W/m 12,9 km/h (3 Bft)
09.02.2014 07:32 5,7 C 3,9 C 76 % 990,9 hPa 0,0 l/m 0 min 0 min 0,0 UV-I 0 W/m 15,4 km/h (3 Bft)
09.02.2014 07:34 5,7 C 3,9 C 76 % 990,9 hPa 0,0 l/m 0 min 0 min 0,0 UV-I 0 W/m 23,2 km/h (4 Bft)
09.02.2014 07:36 5,7 C 3,9 C 76 % 991,0 hPa 0,0 l/m 0 min 0 min 0,0 UV-I 0 W/m 20,6 km/h (4 Bft)
09.02.2014 07:38 5,7 C 3,9 C 76 % 991,1 hPa 0,0 l/m 0 min 0 min 0,0 UV-I 0 W/m 18,0 km/h (3 Bft)
09.02.2014 07:40 5,7 C 3,9 C 76 % 991,0 hPa 0,0 l/m 0 min 0 min 0,0 UV-I 0 W/m 20,6 km/h (4 Bft)
09.02.2014 07:42 5,7 C 3,9 C 76 % 991,0 hPa 0,0 l/m 0 min 0 min 0,0 UV-I 0 W/m 23,2 km/h (4 Bft)
09.02.2014 07:44 5,7 C 3,9 C 76 % 991,1 hPa 0,0 l/m 0 min 0 min 0,0 UV-I 0 W/m 25,7 km/h (4 Bft)
09.02.2014 07:46 5,7 C 3,9 C 76 % 991,1 hPa 0,0 l/m 0 min 0 min 0,0 UV-I 0 W/m 20,6 km/h (4 Bft)
09.02.2014 07:48 5,7 C 3,9 C 76 % 991,0 hPa 0,0 l/m 0 min 0 min 0,0 UV-I 0 W/m 23,2 km/h (4 Bft)
09.02.2014 07:50 5,7 C 3,9 C 76 % 991,1 hPa 0,0 l/m 0 min 0 min 0,0 UV-I 0 W/m 28,3 km/h (4 Bft)
09.02.2014 07:52 5,7 C 4,4 C 76 % 991,1 hPa 0,0 l/m 0 min 0 min 0,0 UV-I 0 W/m 18,0 km/h (3 Bft)
09.02.2014 07:54 5,7 C 3,9 C 76 % 991,0 hPa 0,0 l/m 0 min 0 min 0,0 UV-I 0 W/m 18,0 km/h (3 Bft)
09.02.2014 07:56 5,7 C 4,4 C 76 % 991,1 hPa 0,0 l/m 0 min 0 min 0,0 UV-I 0 W/m 18,0 km/h (3 Bft)
09.02.2014 07:58 5,7 C 4,4 C 76 % 991,0 hPa 0,0 l/m 0 min 0 min 0,0 UV-I 0 W/m 25,7 km/h (4 Bft)
09.02.2014 08:00 5,7 C 3,9 C 80 % 991,0 hPa 0,0 l/m 0 min 0 min 0,0 UV-I 0 W/m 18,0 km/h (3 Bft)
09.02.2014 08:02 5,7 C 4,4 C 76 % 991,1 hPa 0,0 l/m 0 min 0 min 0,0 UV-I 0 W/m 23,2 km/h (4 Bft)
09.02.2014 08:04 5,7 C 4,4 C 76 % 991,1 hPa 0,0 l/m 0 min 0 min 0,0 UV-I 0 W/m 25,7 km/h (4 Bft)
09.02.2014 08:06 5,7 C 4,4 C 76 % 991,1 hPa 0,0 l/m 0 min 0 min 0,0 UV-I 0 W/m 15,4 km/h (3 Bft)
09.02.2014 08:08 5,7 C 4,4 C 76 % 991,0 hPa 0,0 l/m 0 min 0 min 0,0 UV-I 5 W/m 23,2 km/h (4 Bft)
09.02.2014 08:10 5,7 C 4,4 C 76 % 991,1 hPa 0,0 l/m 0 min 0 min 0,0 UV-I 5 W/m 25,7 km/h (4 Bft)
09.02.2014 08:12 5,7 C 4,4 C 75 % 991,1 hPa 0,0 l/m 0 min 0 min 0,0 UV-I 5 W/m 18,0 km/h (3 Bft)
09.02.2014 08:14 5,8 C 4,4 C 75 % 991,2 hPa 0,0 l/m 0 min 0 min 0,0 UV-I 5 W/m 23,2 km/h (4 Bft)
09.02.2014 08:16 5,8 C 4,4 C 76 % 991,2 hPa 0,0 l/m 0 min 0 min 0,0 UV-I 5 W/m 23,2 km/h (4 Bft)
09.02.2014 08:18 5,8 C 4,4 C 75 % 991,2 hPa 0,0 l/m 0 min 0 min 0,0 UV-I 5 W/m 18,0 km/h (3 Bft)
09.02.2014 08:20 5,8 C 4,4 C 75 % 991,4 hPa 0,0 l/m 0 min 0 min 0,0 UV-I 7 W/m 23,2 km/h (4 Bft)
09.02.2014 08:22 5,8 C 4,4 C 75 % 991,4 hPa 0,0 l/m 0 min 0 min 0,0 UV-I 9 W/m 10,3 km/h (2 Bft)
09.02.2014 08:24 5,8 C 4,4 C 75 % 991,4 hPa 0,0 l/m 0 min 0 min 0,0 UV-I 11 W/m 18,0 km/h (3 Bft)
09.02.2014 08:26 5,8 C 3,9 C 75 % 991,3 hPa 0,0 l/m 0 min 0 min 0,0 UV-I 12 W/m 18,0 km/h (3 Bft)
09.02.2014 08:28 5,8 C 3,9 C 75 % 991,4 hPa 0,0 l/m 0 min 0 min 0,0 UV-I 14 W/m 25,7 km/h (4 Bft)
09.02.2014 08:30 5,8 C 3,9 C 75 % 991,2 hPa 0,0 l/m 0 min 0 min 0,0 UV-I 14 W/m 18,0 km/h (3 Bft)
09.02.2014 08:32 5,8 C 3,9 C 75 % 991,3 hPa 0,0 l/m 0 min 0 min 0,0 UV-I 18 W/m 18,0 km/h (3 Bft)
09.02.2014 08:34 5,8 C 3,9 C 75 % 991,5 hPa 0,0 l/m 0 min 0 min 0,0 UV-I 19 W/m 12,9 km/h (3 Bft)
09.02.2014 08:36 5,7 C 3,9 C 75 % 991,4 hPa 0,0 l/m 0 min 0 min 0,0 UV-I 21 W/m 20,6 km/h (4 Bft)
09.02.2014 08:38 5,7 C 3,9 C 75 % 991,4 hPa 0,0 l/m 0 min 0 min 0,0 UV-I 26 W/m 15,4 km/h (3 Bft)
09.02.2014 08:40 5,7 C 3,9 C 75 % 991,4 hPa 0,0 l/m 0 min 0 min 0,0 UV-I 30 W/m 12,9 km/h (3 Bft)
09.02.2014 08:42 5,7 C 3,9 C 75 % 991,3 hPa 0,0 l/m 0 min 0 min 0,0 UV-I 40 W/m 15,4 km/h (3 Bft)
09.02.2014 08:44 5,7 C 3,9 C 75 % 991,3 hPa 0,0 l/m 0 min 0 min 0,0 UV-I 37 W/m 15,4 km/h (3 Bft)
09.02.2014 08:46 5,7 C 3,9 C 75 % 991,5 hPa 0,0 l/m 0 min 0 min 0,0 UV-I 39 W/m 18,0 km/h (3 Bft)
09.02.2014 08:48 5,7 C 3,9 C 75 % 991,5 hPa 0,0 l/m 0 min 0 min 0,0 UV-I 42 W/m 20,6 km/h (4 Bft)
09.02.2014 08:50 5,7 C 3,9 C 75 % 991,5 hPa 0,0 l/m 0 min 0 min 0,0 UV-I 37 W/m 25,7 km/h (4 Bft)
09.02.2014 08:52 5,7 C 3,9 C 75 % 991,5 hPa 0,0 l/m 0 min 0 min 0,0 UV-I 35 W/m 28,3 km/h (4 Bft)
09.02.2014 08:54 5,7 C 3,9 C 75 % 991,5 hPa 0,0 l/m 0 min 0 min 0,0 UV-I 39 W/m 33,5 km/h (5 Bft)
09.02.2014 08:56 5,7 C 3,9 C 75 % 991,6 hPa 0,0 l/m 0 min 0 min 0,0 UV-I 56 W/m 18,0 km/h (3 Bft)
09.02.2014 08:58 5,7 C 4,4 C 75 % 991,5 hPa 0,0 l/m 0 min 0 min 0,0 UV-I 44 W/m 23,2 km/h (4 Bft)
09.02.2014 09:00 5,7 C 3,9 C 75 % 991,6 hPa 0,0 l/m 0 min 0 min 0,0 UV-I 51 W/m 23,2 km/h (4 Bft)
09.02.2014 09:02 5,7 C 4,4 C 75 % 991,6 hPa 0,0 l/m 0 min 0 min 0,0 UV-I 54 W/m 25,7 km/h (4 Bft)
09.02.2014 09:04 5,7 C 4,4 C 75 % 991,6 hPa 0,0 l/m 0 min 0 min 0,0 UV-I 63 W/m 12,9 km/h (3 Bft)
09.02.2014 09:06 5,7 C 4,4 C 75 % 991,7 hPa 0,0 l/m 0 min 0 min 0,0 UV-I 65 W/m 25,7 km/h (4 Bft)
09.02.2014 09:08 5,7 C 4,4 C 75 % 991,5 hPa 0,0 l/m 0 min 0 min 0,0 UV-I 62 W/m 20,6 km/h (4 Bft)
09.02.2014 09:10 5,7 C 4,4 C 75 % 991,5 hPa 0,0 l/m 0 min 0 min 0,0 UV-I 44 W/m 7,7 km/h (2 Bft)
09.02.2014 09:12 5,8 C 4,4 C 75 % 991,6 hPa 0,0 l/m 0 min 0 min 0,0 UV-I 39 W/m 30,9 km/h (5 Bft)
09.02.2014 09:14 5,8 C 4,4 C 75 % 991,4 hPa 0,0 l/m 0 min 0 min 0,0 UV-I 37 W/m 18,0 km/h (3 Bft)
09.02.2014 09:16 5,8 C 4,4 C 75 % 991,5 hPa 0,0 l/m 0 min 0 min 0,0 UV-I 33 W/m 33,5 km/h (5 Bft)
09.02.2014 09:18 5,8 C 4,4 C 75 % 991,5 hPa 0,0 l/m 0 min 0 min 0,0 UV-I 49 W/m 25,7 km/h (4 Bft)
09.02.2014 09:20 5,8 C 4,4 C 75 % 991,4 hPa 0,0 l/m 2 min 0 min 0,0 UV-I 111 W/m 28,3 km/h (4 Bft)
09.02.2014 09:22 5,8 C 4,4 C 75 % 991,4 hPa 0,0 l/m 0 min 0 min 0,0 UV-I 54 W/m 25,7 km/h (4 Bft)
09.02.2014 09:24 5,8 C 4,4 C 75 % 991,4 hPa 0,0 l/m 2 min 0 min 0,0 UV-I 109 W/m 12,9 km/h (3 Bft)
09.02.2014 09:26 5,8 C 4,4 C 75 % 991,4 hPa 0,0 l/m 2 min 0 min 0,0 UV-I 123 W/m 10,3 km/h (2 Bft)
09.02.2014 09:28 5,8 C 4,4 C 75 % 991,4 hPa 0,0 l/m 2 min 0 min 0,0 UV-I 132 W/m 25,7 km/h (4 Bft)
09.02.2014 09:30 5,8 C 4,4 C 75 % 991,4 hPa 0,0 l/m 2 min 0 min 0,0 UV-I 135 W/m 18,0 km/h (3 Bft)
09.02.2014 09:32 5,8 C 4,4 C 75 % 991,4 hPa 0,0 l/m 2 min 0 min 0,0 UV-I 137 W/m 33,5 km/h (5 Bft)
09.02.2014 09:34 5,9 C 4,4 C 75 % 991,6 hPa 0,0 l/m 0 min 0 min 0,0 UV-I 63 W/m 28,3 km/h (4 Bft)
09.02.2014 09:36 5,9 C 4,4 C 74 % 991,6 hPa 0,0 l/m 2 min 0 min 0,0 UV-I 176 W/m 20,6 km/h (4 Bft)
09.02.2014 09:38 6,0 C 5,0 C 74 % 991,5 hPa 0,0 l/m 2 min 0 min 0,0 UV-I 190 W/m 41,2 km/h (6 Bft)
09.02.2014 09:40 6,1 C 5,0 C 74 % 991,5 hPa 0,0 l/m 2 min 0 min 0,0 UV-I 220 W/m 25,7 km/h (4 Bft)
09.02.2014 09:42 6,2 C 5,0 C 74 % 991,6 hPa 0,0 l/m 2 min 0 min 0,0 UV-I 255 W/m 41,2 km/h (6 Bft)
09.02.2014 09:44 6,4 C 5,6 C 74 % 991,6 hPa 0,0 l/m 0 min 0 min 0,0 UV-I 111 W/m 30,9 km/h (5 Bft)
09.02.2014 09:46 6,4 C 5,6 C 73 % 991,5 hPa 0,0 l/m 0 min 0 min 0,0 UV-I 102 W/m 28,3 km/h (4 Bft)
09.02.2014 09:48 6,5 C 5,6 C 73 % 991,6 hPa 0,0 l/m 0 min 0 min 0,0 UV-I 107 W/m 23,2 km/h (4 Bft)
09.02.2014 09:50 6,5 C 5,6 C 73 % 991,6 hPa 0,0 l/m 0 min 0 min 0,0 UV-I 114 W/m 30,9 km/h (5 Bft)
09.02.2014 09:52 6,6 C 5,6 C 73 % 991,6 hPa 0,0 l/m 0 min 0 min 0,0 UV-I 123 W/m 30,9 km/h (5 Bft)
09.02.2014 09:54 6,6 C 5,6 C 73 % 991,6 hPa 0,0 l/m 0 min 0 min 0,0 UV-I 121 W/m 18,0 km/h (3 Bft)
09.02.2014 09:56 6,6 C 5,6 C 73 % 991,6 hPa 0,0 l/m 2 min 0 min 0,0 UV-I 156 W/m 15,4 km/h (3 Bft)
09.02.2014 09:58 6,6 C 6,1 C 73 % 991,6 hPa 0,0 l/m 2 min 0 min 0,0 UV-I 158 W/m 23,2 km/h (4 Bft)
09.02.2014 10:00 6,7 C 5,6 C 72 % 991,6 hPa 0,0 l/m 2 min 0 min 0,0 UV-I 153 W/m 20,6 km/h (4 Bft)
09.02.2014 10:02 6,7 C 5,6 C 73 % 991,4 hPa 0,0 l/m 2 min 0 min 0,0 UV-I 151 W/m 12,9 km/h (3 Bft)
09.02.2014 10:04 6,7 C 5,6 C 73 % 991,5 hPa 0,0 l/m 0 min 0 min 0,0 UV-I 137 W/m 15,4 km/h (3 Bft)
09.02.2014 10:06 6,7 C 5,6 C 72 % 991,6 hPa 0,0 l/m 0 min 0 min 0,0 UV-I 146 W/m 41,2 km/h (6 Bft)
09.02.2014 10:08 6,7 C 5,6 C 72 % 991,6 hPa 0,0 l/m 0 min 0 min 0,0 UV-I 148 W/m 23,2 km/h (4 Bft)
09.02.2014 10:10 6,7 C 5,6 C 72 % 991,7 hPa 0,0 l/m 2 min 0 min 0,0 UV-I 155 W/m 28,3 km/h (4 Bft)
09.02.2014 10:12 6,7 C 5,6 C 72 % 991,6 hPa 0,0 l/m 2 min 0 min 0,0 UV-I 230 W/m 54,1 km/h (7 Bft)
09.02.2014 10:14 6,8 C 5,6 C 71 % 991,6 hPa 0,0 l/m 0 min 0 min 0,0 UV-I 149 W/m 23,2 km/h (4 Bft)
09.02.2014 10:16 6,7 C 5,6 C 71 % 991,7 hPa 0,0 l/m 0 min 0 min 0,0 UV-I 109 W/m 36,0 km/h (5 Bft)
09.02.2014 10:18 6,7 C 5,6 C 71 % 991,7 hPa 0,0 l/m 0 min 0 min 0,0 UV-I 97 W/m 33,5 km/h (5 Bft)
09.02.2014 10:20 6,7 C 5,6 C 71 % 991,6 hPa 0,0 l/m 0 min 0 min 0,0 UV-I 111 W/m 36,0 km/h (5 Bft)
09.02.2014 10:22 6,7 C 5,6 C 71 % 991,6 hPa 0,0 l/m 0 min 0 min 0,0 UV-I 111 W/m 33,5 km/h (5 Bft)
09.02.2014 10:24 6,7 C 5,6 C 71 % 991,7 hPa 0,0 l/m 0 min 0 min 0,0 UV-I 118 W/m 46,3 km/h (6 Bft)
09.02.2014 10:26 6,7 C 5,6 C 70 % 991,7 hPa 0,0 l/m 0 min 0 min 0,0 UV-I 118 W/m 30,9 km/h (5 Bft)
09.02.2014 10:28 6,7 C 5,6 C 70 % 991,7 hPa 0,0 l/m 0 min 0 min 0,0 UV-I 113 W/m 18,0 km/h (3 Bft)
09.02.2014 10:30 6,7 C 5,6 C 71 % 991,5 hPa 0,0 l/m 0 min 0 min 0,0 UV-I 91 W/m 23,2 km/h (4 Bft)
09.02.2014 10:32 6,7 C 5,6 C 71 % 991,7 hPa 0,0 l/m 0 min 0 min 0,0 UV-I 86 W/m 41,2 km/h (6 Bft)
09.02.2014 10:34 6,7 C 5,6 C 71 % 991,7 hPa 0,0 l/m 0 min 0 min 0,0 UV-I 93 W/m 23,2 km/h (4 Bft)
09.02.2014 10:36 6,7 C 5,6 C 71 % 991,5 hPa 0,0 l/m 0 min 0 min 0,0 UV-I 104 W/m 36,0 km/h (5 Bft)
09.02.2014 10:38 6,6 C 5,6 C 70 % 991,6 hPa 0,0 l/m 0 min 0 min 0,0 UV-I 107 W/m 46,3 km/h (6 Bft)
09.02.2014 10:40 6,6 C 5,6 C 71 % 991,6 hPa 0,0 l/m 0 min 0 min 0,0 UV-I 114 W/m 25,7 km/h (4 Bft)
09.02.2014 10:42 6,6 C 5,6 C 70 % 991,8 hPa 0,0 l/m 0 min 0 min 0,0 UV-I 132 W/m 54,1 km/h (7 Bft)
09.02.2014 10:44 6,7 C 5,6 C 70 % 991,5 hPa 0,0 l/m 0 min 0 min 0,0 UV-I 130 W/m 25,7 km/h (4 Bft)
09.02.2014 10:46 6,7 C 5,6 C 70 % 991,7 hPa 0,0 l/m 0 min 0 min 0,0 UV-I 118 W/m 18,0 km/h (3 Bft)
09.02.2014 10:48 6,7 C 5,6 C 70 % 991,5 hPa 0,0 l/m 0 min 0 min 0,0 UV-I 107 W/m 23,2 km/h (4 Bft)
09.02.2014 10:50 6,7 C 5,6 C 70 % 991,6 hPa 0,0 l/m 0 min 0 min 0,0 UV-I 113 W/m 33,5 km/h (5 Bft)
09.02.2014 10:52 6,7 C 5,6 C 70 % 991,7 hPa 0,0 l/m 0 min 0 min 0,0 UV-I 118 W/m 23,2 km/h (4 Bft)
09.02.2014 10:54 6,7 C 5,6 C 70 % 991,6 hPa 0,0 l/m 0 min 0 min 0,0 UV-I 132 W/m 23,2 km/h (4 Bft)
09.02.2014 10:56 6,7 C 5,6 C 70 % 991,7 hPa 0,0 l/m 0 min 0 min 0,0 UV-I 151 W/m 43,8 km/h (6 Bft)
09.02.2014 10:58 6,7 C 5,6 C 70 % 991,8 hPa 0,0 l/m 0 min 0 min 0,0 UV-I 165 W/m 28,3 km/h (4 Bft)
09.02.2014 11:00 6,8 C 5,6 C 70 % 991,7 hPa 0,0 l/m 0 min 0 min 0,0 UV-I 149 W/m 28,3 km/h (4 Bft)
09.02.2014 11:02 6,8 C 5,6 C 70 % 991,7 hPa 0,0 l/m 0 min 0 min 0,0 UV-I 169 W/m 10,3 km/h (2 Bft)
09.02.2014 11:04 6,8 C 6,1 C 70 % 991,6 hPa 0,0 l/m 0 min 0 min 0,0 UV-I 179 W/m 41,2 km/h (6 Bft)
09.02.2014 11:06 6,8 C 6,1 C 69 % 991,8 hPa 0,0 l/m 0 min 0 min 0,0 UV-I 186 W/m 28,3 km/h (4 Bft)
09.02.2014 11:08 6,9 C 6,1 C 70 % 991,8 hPa 0,0 l/m 0 min 0 min 0,0 UV-I 195 W/m 18,0 km/h (3 Bft)
09.02.2014 11:10 6,9 C 6,1 C 70 % 991,8 hPa 0,0 l/m 2 min 0 min 0,0 UV-I 220 W/m 23,2 km/h (4 Bft)
09.02.2014 11:12 7,1 C 6,1 C 69 % 991,7 hPa 0,0 l/m 2 min 0 min 0,0 UV-I 411 W/m 25,7 km/h (4 Bft)
09.02.2014 11:14 7,2 C 6,1 C 69 % 991,7 hPa 0,0 l/m 2 min 0 min 0,0 UV-I 411 W/m 36,0 km/h (5 Bft)
09.02.2014 11:16 7,3 C 6,7 C 69 % 991,8 hPa 0,0 l/m 2 min 0 min 0,0 UV-I 318 W/m 30,9 km/h (5 Bft)
09.02.2014 11:18 7,3 C 6,7 C 69 % 991,7 hPa 0,0 l/m 2 min 0 min 0,0 UV-I 258 W/m 28,3 km/h (4 Bft)
09.02.2014 11:20 7,3 C 6,7 C 69 % 991,8 hPa 0,0 l/m 0 min 0 min 0,0 UV-I 202 W/m 30,9 km/h (5 Bft)
09.02.2014 11:22 7,3 C 6,7 C 69 % 992,2 hPa 0,0 l/m 2 min 0 min 0,0 UV-I 214 W/m 43,8 km/h (6 Bft)
09.02.2014 11:24 7,3 C 6,7 C 69 % 992,0 hPa 0,0 l/m 2 min 0 min 0,0 UV-I 274 W/m 28,3 km/h (4 Bft)
09.02.2014 11:26 7,3 C 6,7 C 69 % 991,8 hPa 0,0 l/m 2 min 0 min 0,0 UV-I 308 W/m 25,7 km/h (4 Bft)
09.02.2014 11:28 7,3 C 6,7 C 69 % 992,0 hPa 0,0 l/m 2 min 0 min 0,0 UV-I 313 W/m 38,6 km/h (5 Bft)
09.02.2014 11:30 7,4 C 7,2 C 69 % 991,9 hPa 0,0 l/m 2 min 0 min 0,0 UV-I 257 W/m 25,7 km/h (4 Bft)
09.02.2014 11:32 7,6 C 7,2 C 69 % 992,0 hPa 0,0 l/m 2 min 0 min 0,0 UV-I 339 W/m 43,8 km/h (6 Bft)
09.02.2014 11:34 7,6 C 7,2 C 68 % 991,8 hPa 0,0 l/m 2 min 0 min 0,0 UV-I 241 W/m 33,5 km/h (5 Bft)
09.02.2014 11:36 7,6 C 6,7 C 68 % 991,8 hPa 0,0 l/m 0 min 0 min 0,0 UV-I 162 W/m 43,8 km/h (6 Bft)
09.02.2014 11:38 7,5 C 6,7 C 68 % 992,0 hPa 0,0 l/m 0 min 0 min 0,0 UV-I 142 W/m 43,8 km/h (6 Bft)
09.02.2014 11:40 7,4 C 6,7 C 69 % 992,1 hPa 0,0 l/m 0 min 0 min 0,0 UV-I 125 W/m 43,8 km/h (6 Bft)
09.02.2014 11:42 7,4 C 6,7 C 69 % 992,1 hPa 0,0 l/m 0 min 0 min 0,0 UV-I 127 W/m 23,2 km/h (4 Bft)
09.02.2014 11:44 7,3 C 6,1 C 69 % 992,1 hPa 0,0 l/m 0 min 0 min 0,0 UV-I 130 W/m 38,6 km/h (5 Bft)
09.02.2014 11:46 7,3 C 6,1 C 69 % 992,1 hPa 0,0 l/m 0 min 0 min 0,0 UV-I 120 W/m 56,6 km/h (7 Bft)
09.02.2014 11:48 7,2 C 6,1 C 69 % 992,0 hPa 0,0 l/m 0 min 0 min 0,0 UV-I 97 W/m 30,9 km/h (5 Bft)
09.02.2014 11:50 7,2 C 6,1 C 69 % 992,1 hPa 0,0 l/m 0 min 0 min 0,0 UV-I 97 W/m 30,9 km/h (5 Bft)
09.02.2014 11:52 7,2 C 6,1 C 69 % 992,1 hPa 0,0 l/m 0 min 0 min 0,0 UV-I 83 W/m 64,4 km/h (8 Bft)
09.02.2014 11:54 7,1 C 6,1 C 69 % 992,1 hPa 0,0 l/m 0 min 0 min 0,0 UV-I 84 W/m 28,3 km/h (4 Bft)
09.02.2014 11:56 7,1 C 6,1 C 70 % 992,3 hPa 0,0 l/m 0 min 0 min 0,0 UV-I 91 W/m 23,2 km/h (4 Bft)
09.02.2014 11:58 7,1 C 6,1 C 70 % 992,3 hPa 0,0 l/m 0 min 0 min 0,0 UV-I 76 W/m 30,9 km/h (5 Bft)
09.02.2014 12:00 7,1 C 6,1 C 70 % 992,3 hPa 0,0 l/m 0 min 0 min 0,0 UV-I 63 W/m 36,0 km/h (5 Bft)
09.02.2014 12:02 7,1 C 5,6 C 70 % 992,2 hPa 0,0 l/m 0 min 0 min 0,0 UV-I 62 W/m 28,3 km/h (4 Bft)
09.02.2014 12:04 7,1 C 5,6 C 70 % 992,3 hPa 0,0 l/m 0 min 0 min 0,0 UV-I 65 W/m 28,3 km/h (4 Bft)
09.02.2014 12:06 7,0 C 5,6 C 70 % 992,3 hPa 0,0 l/m 0 min 0 min 0,0 UV-I 65 W/m 28,3 km/h (4 Bft)
09.02.2014 12:08 7,0 C 5,6 C 70 % 992,4 hPa 0,0 l/m 0 min 0 min 0,0 UV-I 74 W/m 36,0 km/h (5 Bft)
09.02.2014 12:10 7,0 C 5,6 C 70 % 992,2 hPa 0,0 l/m 0 min 0 min 0,0 UV-I 83 W/m 46,3 km/h (6 Bft)
09.02.2014 12:12 7,0 C 5,6 C 69 % 992,4 hPa 0,0 l/m 0 min 0 min 0,0 UV-I 86 W/m 33,5 km/h (5 Bft)
09.02.2014 12:14 7,0 C 5,6 C 69 % 992,5 hPa 0,0 l/m 0 min 0 min 0,0 UV-I 84 W/m 30,9 km/h (5 Bft)
09.02.2014 12:16 6,9 C 6,1 C 69 % 992,4 hPa 0,0 l/m 0 min 0 min 0,0 UV-I 102 W/m 30,9 km/h (5 Bft)
09.02.2014 12:18 6,9 C 6,1 C 69 % 992,4 hPa 0,0 l/m 0 min 0 min 0,0 UV-I 111 W/m 41,2 km/h (6 Bft)
09.02.2014 12:20 7,0 C 6,1 C 69 % 992,3 hPa 0,0 l/m 0 min 0 min 0,0 UV-I 125 W/m 33,5 km/h (5 Bft)
09.02.2014 12:22 7,0 C 6,1 C 69 % 992,4 hPa 0,0 l/m 0 min 0 min 0,0 UV-I 158 W/m 25,7 km/h (4 Bft)
09.02.2014 12:24 7,0 C 6,1 C 69 % 992,4 hPa 0,0 l/m 0 min 0 min 0,0 UV-I 148 W/m 38,6 km/h (5 Bft)
09.02.2014 12:26 7,1 C 6,1 C 69 % 992,2 hPa 0,0 l/m 0 min 0 min 0,0 UV-I 149 W/m 33,5 km/h (5 Bft)
09.02.2014 12:28 7,1 C 6,1 C 69 % 992,3 hPa 0,0 l/m 0 min 0 min 0,0 UV-I 160 W/m 46,3 km/h (6 Bft)
09.02.2014 12:30 7,1 C 6,1 C 69 % 992,5 hPa 0,0 l/m 0 min 0 min 0,0 UV-I 167 W/m 56,6 km/h (7 Bft)
09.02.2014 12:32 7,1 C 6,1 C 69 % 992,4 hPa 0,0 l/m 0 min 0 min 0,0 UV-I 163 W/m 23,2 km/h (4 Bft)
09.02.2014 12:34 7,2 C 6,1 C 69 % 992,3 hPa 0,0 l/m 0 min 0 min 0,0 UV-I 142 W/m 28,3 km/h (4 Bft)
09.02.2014 12:36 7,2 C 6,1 C 68 % 992,6 hPa 0,0 l/m 0 min 0 min 0,0 UV-I 146 W/m 41,2 km/h (6 Bft)
09.02.2014 12:38 7,2 C 6,1 C 68 % 992,3 hPa 0,0 l/m 0 min 0 min 0,0 UV-I 135 W/m 36,0 km/h (5 Bft)
09.02.2014 12:40 7,2 C 6,1 C 68 % 992,2 hPa 0,0 l/m 0 min 0 min 0,0 UV-I 144 W/m 25,7 km/h (4 Bft)
09.02.2014 12:42 7,2 C 6,1 C 68 % 992,3 hPa 0,0 l/m 0 min 0 min 0,0 UV-I 132 W/m 43,8 km/h (6 Bft)
09.02.2014 12:44 7,2 C 6,1 C 68 % 992,5 hPa 0,0 l/m 0 min 0 min 0,0 UV-I 149 W/m 25,7 km/h (4 Bft)
09.02.2014 12:46 7,2 C 6,1 C 68 % 992,4 hPa 0,0 l/m 0 min 0 min 0,0 UV-I 148 W/m 25,7 km/h (4 Bft)
09.02.2014 12:48 7,2 C 6,7 C 69 % 992,4 hPa 0,0 l/m 0 min 0 min 0,0 UV-I 169 W/m 30,9 km/h (5 Bft)
09.02.2014 12:50 7,3 C 6,7 C 69 % 992,4 hPa 0,0 l/m 0 min 0 min 0,0 UV-I 163 W/m 20,6 km/h (4 Bft)
09.02.2014 12:52 7,3 C 6,7 C 69 % 992,6 hPa 0,0 l/m 0 min 0 min 0,0 UV-I 132 W/m 25,7 km/h (4 Bft)
09.02.2014 12:54 7,3 C 6,7 C 68 % 992,7 hPa 0,0 l/m 0 min 0 min 0,0 UV-I 130 W/m 43,8 km/h (6 Bft)
09.02.2014 12:56 7,3 C 6,7 C 68 % 992,6 hPa 0,0 l/m 0 min 0 min 0,0 UV-I 123 W/m 23,2 km/h (4 Bft)
09.02.2014 12:58 7,3 C 6,7 C 68 % 992,5 hPa 0,0 l/m 0 min 0 min 0,0 UV-I 135 W/m 18,0 km/h (3 Bft)
09.02.2014 13:00 7,3 C 6,7 C 69 % 992,5 hPa 0,0 l/m 0 min 0 min 0,0 UV-I 137 W/m 30,9 km/h (5 Bft)
09.02.2014 13:02 7,3 C 6,7 C 69 % 992,7 hPa 0,0 l/m 0 min 0 min 0,0 UV-I 104 W/m 25,7 km/h (4 Bft)
09.02.2014 13:04 7,3 C 6,7 C 69 % 992,6 hPa 0,0 l/m 0 min 0 min 0,0 UV-I 84 W/m 25,7 km/h (4 Bft)
09.02.2014 13:06 7,3 C 6,1 C 69 % 992,6 hPa 0,0 l/m 0 min 0 min 0,0 UV-I 91 W/m 18,0 km/h (3 Bft)
09.02.2014 13:08 7,3 C 6,1 C 69 % 992,7 hPa 0,0 l/m 0 min 0 min 0,0 UV-I 95 W/m 18,0 km/h (3 Bft)
09.02.2014 13:10 7,3 C 6,1 C 69 % 992,7 hPa 0,0 l/m 0 min 0 min 0,0 UV-I 93 W/m 23,2 km/h (4 Bft)
09.02.2014 13:12 7,3 C 6,1 C 69 % 992,8 hPa 0,0 l/m 0 min 0 min 0,0 UV-I 102 W/m 43,8 km/h (6 Bft)
09.02.2014 13:14 7,3 C 6,1 C 69 % 992,7 hPa 0,0 l/m 0 min 0 min 0,0 UV-I 148 W/m 23,2 km/h (4 Bft)
09.02.2014 13:16 7,3 C 6,7 C 69 % 992,5 hPa 0,0 l/m 0 min 0 min 0,0 UV-I 207 W/m 23,2 km/h (4 Bft)
09.02.2014 13:18 7,3 C 6,7 C 69 % 992,5 hPa 0,0 l/m 2 min 0 min 0,0 UV-I 244 W/m 20,6 km/h (4 Bft)
09.02.2014 13:20 7,4 C 7,2 C 70 % 992,5 hPa 0,0 l/m 0 min 0 min 0,0 UV-I 223 W/m 23,2 km/h (4 Bft)
09.02.2014 13:22 7,5 C 7,2 C 69 % 992,5 hPa 0,0 l/m 2 min 0 min 0,0 UV-I 229 W/m 18,0 km/h (3 Bft)
09.02.2014 13:24 7,6 C 7,2 C 68 % 992,7 hPa 0,0 l/m 0 min 0 min 0,0 UV-I 211 W/m 23,2 km/h (4 Bft)
09.02.2014 13:26 7,7 C 7,2 C 68 % 992,7 hPa 0,0 l/m 0 min 0 min 0,0 UV-I 183 W/m 28,3 km/h (4 Bft)
09.02.2014 13:28 7,6 C 7,2 C 67 % 992,6 hPa 0,0 l/m 0 min 0 min 0,0 UV-I 178 W/m 30,9 km/h (5 Bft)
09.02.2014 13:30 7,6 C 7,2 C 68 % 992,9 hPa 0,0 l/m 0 min 0 min 0,0 UV-I 202 W/m 43,8 km/h (6 Bft)
09.02.2014 13:32 7,7 C 7,2 C 67 % 992,7 hPa 0,0 l/m 0 min 0 min 0,0 UV-I 181 W/m 56,6 km/h (7 Bft)
09.02.2014 13:34 7,7 C 7,2 C 67 % 992,8 hPa 0,0 l/m 2 min 0 min 0,0 UV-I 227 W/m 30,9 km/h (5 Bft)
09.02.2014 13:36 7,7 C 7,2 C 67 % 992,7 hPa 0,0 l/m 0 min 0 min 0,0 UV-I 220 W/m 20,6 km/h (4 Bft)
09.02.2014 13:38 7,7 C 7,2 C 67 % 992,7 hPa 0,0 l/m 0 min 0 min 0,0 UV-I 169 W/m 43,8 km/h (6 Bft)
09.02.2014 13:40 7,7 C 7,2 C 67 % 992,7 hPa 0,0 l/m 0 min 0 min 0,0 UV-I 155 W/m 33,5 km/h (5 Bft)
09.02.2014 13:42 7,7 C 6,7 C 67 % 992,8 hPa 0,0 l/m 0 min 0 min 0,0 UV-I 149 W/m 33,5 km/h (5 Bft)
09.02.2014 13:44 7,6 C 6,7 C 67 % 992,9 hPa 0,0 l/m 0 min 0 min 0,0 UV-I 128 W/m 30,9 km/h (5 Bft)
09.02.2014 13:46 7,6 C 6,7 C 67 % 993,5 hPa 0,0 l/m 0 min 0 min 0,0 UV-I 158 W/m 46,3 km/h (6 Bft)
09.02.2014 13:48 7,6 C 6,7 C 67 % 992,8 hPa 0,0 l/m 0 min 0 min 0,0 UV-I 183 W/m 28,3 km/h (4 Bft)
09.02.2014 13:50 7,6 C 6,7 C 67 % 992,7 hPa 0,0 l/m 0 min 0 min 0,0 UV-I 162 W/m 36,0 km/h (5 Bft)
09.02.2014 13:52 7,6 C 6,7 C 67 % 992,9 hPa 0,0 l/m 0 min 0 min 0,0 UV-I 155 W/m 46,3 km/h (6 Bft)
09.02.2014 13:54 7,6 C 6,7 C 67 % 992,8 hPa 0,0 l/m 0 min 0 min 0,0 UV-I 141 W/m 23,2 km/h (4 Bft)
09.02.2014 13:56 7,6 C 6,7 C 67 % 992,8 hPa 0,0 l/m 0 min 0 min 0,0 UV-I 185 W/m 23,2 km/h (4 Bft)
09.02.2014 13:58 7,6 C 7,2 C 67 % 992,8 hPa 0,0 l/m 2 min 0 min 0,0 UV-I 230 W/m 20,6 km/h (4 Bft)
09.02.2014 14:00 7,7 C 6,7 C 67 % 992,9 hPa 0,0 l/m 0 min 0 min 0,0 UV-I 156 W/m 36,0 km/h (5 Bft)
09.02.2014 14:02 7,7 C 6,7 C 67 % 992,7 hPa 0,0 l/m 0 min 0 min 0,0 UV-I 139 W/m 23,2 km/h (4 Bft)
09.02.2014 14:04 7,6 C 6,7 C 66 % 992,8 hPa 0,0 l/m 0 min 0 min 0,0 UV-I 163 W/m 33,5 km/h (5 Bft)
09.02.2014 14:06 7,6 C 6,7 C 66 % 992,9 hPa 0,0 l/m 0 min 0 min 0,0 UV-I 179 W/m 41,2 km/h (6 Bft)
09.02.2014 14:08 7,7 C 7,2 C 66 % 992,9 hPa 0,0 l/m 2 min 0 min 0,0 UV-I 218 W/m 43,8 km/h (6 Bft)
09.02.2014 14:10 7,7 C 6,7 C 67 % 992,8 hPa 0,0 l/m 0 min 0 min 0,0 UV-I 135 W/m 38,6 km/h (5 Bft)
09.02.2014 14:12 7,7 C 6,7 C 66 % 992,8 hPa 0,0 l/m 0 min 0 min 0,0 UV-I 148 W/m 23,2 km/h (4 Bft)
09.02.2014 14:14 7,6 C 6,7 C 66 % 992,8 hPa 0,0 l/m 0 min 0 min 0,0 UV-I 186 W/m 18,0 km/h (3 Bft)
09.02.2014 14:16 7,7 C 6,7 C 66 % 992,7 hPa 0,0 l/m 0 min 0 min 0,0 UV-I 155 W/m 30,9 km/h (5 Bft)
09.02.2014 14:18 7,6 C 7,2 C 67 % 992,7 hPa 0,0 l/m 0 min 0 min 0,0 UV-I 146 W/m 30,9 km/h (5 Bft)
09.02.2014 14:20 7,6 C 6,7 C 67 % 992,8 hPa 0,0 l/m 0 min 0 min 0,0 UV-I 132 W/m 51,5 km/h (7 Bft)
09.02.2014 14:22 7,6 C 6,7 C 66 % 992,9 hPa 0,0 l/m 0 min 0 min 0,0 UV-I 125 W/m 46,3 km/h (6 Bft)
09.02.2014 14:24 7,6 C 6,7 C 66 % 992,9 hPa 0,0 l/m 0 min 0 min 0,0 UV-I 121 W/m 20,6 km/h (4 Bft)
09.02.2014 14:26 7,6 C 6,7 C 66 % 992,9 hPa 0,0 l/m 0 min 0 min 0,0 UV-I 118 W/m 12,9 km/h (3 Bft)
09.02.2014 14:28 7,6 C 6,7 C 67 % 992,8 hPa 0,0 l/m 0 min 0 min 0,0 UV-I 121 W/m 12,9 km/h (3 Bft)
09.02.2014 14:30 7,6 C 6,7 C 66 % 992,9 hPa 0,0 l/m 0 min 0 min 0,0 UV-I 114 W/m 38,6 km/h (5 Bft)
09.02.2014 14:32 7,6 C 6,7 C 66 % 993,0 hPa 0,0 l/m 0 min 0 min 0,0 UV-I 118 W/m 38,6 km/h (5 Bft)
09.02.2014 14:34 7,6 C 6,7 C 66 % 992,8 hPa 0,0 l/m 0 min 0 min 0,0 UV-I 121 W/m 20,6 km/h (4 Bft)
09.02.2014 14:36 7,6 C 6,7 C 66 % 992,9 hPa 0,0 l/m 0 min 0 min 0,0 UV-I 105 W/m 33,5 km/h (5 Bft)
09.02.2014 14:38 7,6 C 6,7 C 65 % 993,0 hPa 0,0 l/m 0 min 0 min 0,0 UV-I 118 W/m 23,2 km/h (4 Bft)
09.02.2014 14:40 7,6 C 6,7 C 66 % 992,8 hPa 0,0 l/m 0 min 0 min 0,0 UV-I 127 W/m 30,9 km/h (5 Bft)
09.02.2014 14:42 7,6 C 6,7 C 67 % 992,9 hPa 0,0 l/m 0 min 0 min 0,0 UV-I 127 W/m 30,9 km/h (5 Bft)
09.02.2014 14:44 7,6 C 6,7 C 66 % 993,1 hPa 0,0 l/m 0 min 0 min 0,0 UV-I 109 W/m 28,3 km/h (4 Bft)
09.02.2014 14:46 7,6 C 6,7 C 66 % 992,9 hPa 0,0 l/m 0 min 0 min 0,0 UV-I 98 W/m 25,7 km/h (4 Bft)
09.02.2014 14:48 7,6 C 6,7 C 66 % 993,0 hPa 0,0 l/m 0 min 0 min 0,0 UV-I 86 W/m 30,9 km/h (5 Bft)
09.02.2014 14:50 7,6 C 6,7 C 67 % 992,9 hPa 0,0 l/m 0 min 0 min 0,0 UV-I 90 W/m 30,9 km/h (5 Bft)
09.02.2014 14:52 7,6 C 6,7 C 67 % 993,0 hPa 0,0 l/m 0 min 0 min 0,0 UV-I 77 W/m 33,5 km/h (5 Bft)
09.02.2014 14:54 7,6 C 6,1 C 66 % 993,1 hPa 0,0 l/m 0 min 0 min 0,0 UV-I 63 W/m 33,5 km/h (5 Bft)
09.02.2014 14:56 7,6 C 6,1 C 67 % 993,1 hPa 0,0 l/m 0 min 0 min 0,0 UV-I 69 W/m 25,7 km/h (4 Bft)
09.02.2014 14:58 7,5 C 6,1 C 66 % 993,1 hPa 0,0 l/m 0 min 0 min 0,0 UV-I 76 W/m 33,5 km/h (5 Bft)
09.02.2014 15:00 7,5 C 6,1 C 67 % 993,3 hPa 0,0 l/m 0 min 0 min 0,0 UV-I 91 W/m 15,4 km/h (3 Bft)
09.02.2014 15:02 7,5 C 6,7 C 67 % 993,2 hPa 0,0 l/m 0 min 0 min 0,0 UV-I 102 W/m 25,7 km/h (4 Bft)
09.02.2014 15:04 7,4 C 6,7 C 67 % 993,0 hPa 0,0 l/m 0 min 0 min 0,0 UV-I 95 W/m 33,5 km/h (5 Bft)
09.02.2014 15:06 7,4 C 6,7 C 66 % 993,2 hPa 0,0 l/m 0 min 0 min 0,0 UV-I 118 W/m 30,9 km/h (5 Bft)
09.02.2014 15:08 7,5 C 6,7 C 66 % 993,1 hPa 0,0 l/m 0 min 0 min 0,0 UV-I 120 W/m 33,5 km/h (5 Bft)
09.02.2014 15:10 7,5 C 6,7 C 67 % 993,3 hPa 0,0 l/m 0 min 0 min 0,0 UV-I 107 W/m 23,2 km/h (4 Bft)
09.02.2014 15:12 7,5 C 6,7 C 66 % 993,5 hPa 0,0 l/m 0 min 0 min 0,0 UV-I 123 W/m 25,7 km/h (4 Bft)
09.02.2014 15:14 7,5 C 6,7 C 66 % 993,4 hPa 0,0 l/m 0 min 0 min 0,0 UV-I 116 W/m 28,3 km/h (4 Bft)
09.02.2014 15:16 7,5 C 6,7 C 67 % 993,4 hPa 0,0 l/m 0 min 0 min 0,0 UV-I 114 W/m 33,5 km/h (5 Bft)
09.02.2014 15:18 7,5 C 6,7 C 66 % 993,2 hPa 0,0 l/m 0 min 0 min 0,0 UV-I 105 W/m 25,7 km/h (4 Bft)
09.02.2014 15:20 7,5 C 6,7 C 67 % 993,4 hPa 0,0 l/m 0 min 0 min 0,0 UV-I 84 W/m 30,9 km/h (5 Bft)
09.02.2014 15:22 7,4 C 6,7 C 66 % 993,6 hPa 0,0 l/m 0 min 0 min 0,0 UV-I 86 W/m 43,8 km/h (6 Bft)
09.02.2014 15:24 7,4 C 6,1 C 67 % 993,3 hPa 0,0 l/m 0 min 0 min 0,0 UV-I 72 W/m 25,7 km/h (4 Bft)
09.02.2014 15:26 7,4 C 6,1 C 67 % 993,5 hPa 0,0 l/m 0 min 0 min 0,0 UV-I 69 W/m 30,9 km/h (5 Bft)
09.02.2014 15:28 7,4 C 6,1 C 67 % 993,4 hPa 0,0 l/m 0 min 0 min 0,0 UV-I 76 W/m 25,7 km/h (4 Bft)
09.02.2014 15:30 7,4 C 6,1 C 67 % 993,5 hPa 0,0 l/m 0 min 0 min 0,0 UV-I 72 W/m 23,2 km/h (4 Bft)
09.02.2014 15:32 7,4 C 6,1 C 67 % 993,3 hPa 0,0 l/m 0 min 0 min 0,0 UV-I 67 W/m 43,8 km/h (6 Bft)
09.02.2014 15:34 7,4 C 6,1 C 67 % 993,4 hPa 0,0 l/m 0 min 0 min 0,0 UV-I 69 W/m 18,0 km/h (3 Bft)
09.02.2014 15:36 7,4 C 6,1 C 67 % 993,5 hPa 0,0 l/m 0 min 0 min 0,0 UV-I 69 W/m 30,9 km/h (5 Bft)
09.02.2014 15:38 7,3 C 6,1 C 67 % 993,6 hPa 0,0 l/m 0 min 0 min 0,0 UV-I 63 W/m 25,7 km/h (4 Bft)
09.02.2014 15:40 7,3 C 6,1 C 67 % 993,6 hPa 0,0 l/m 0 min 0 min 0,0 UV-I 65 W/m 18,0 km/h (3 Bft)
09.02.2014 15:42 7,3 C 6,1 C 67 % 993,6 hPa 0,0 l/m 0 min 0 min 0,0 UV-I 70 W/m 23,2 km/h (4 Bft)
09.02.2014 15:44 7,3 C 6,1 C 68 % 993,6 hPa 0,0 l/m 0 min 0 min 0,0 UV-I 70 W/m 25,7 km/h (4 Bft)
09.02.2014 15:46 7,3 C 6,1 C 68 % 993,6 hPa 0,0 l/m 0 min 0 min 0,0 UV-I 69 W/m 15,4 km/h (3 Bft)
09.02.2014 15:48 7,3 C 6,1 C 67 % 993,6 hPa 0,0 l/m 0 min 0 min 0,0 UV-I 69 W/m 20,6 km/h (4 Bft)
09.02.2014 15:50 7,3 C 6,1 C 67 % 993,6 hPa 0,0 l/m 0 min 0 min 0,0 UV-I 65 W/m 20,6 km/h (4 Bft)
09.02.2014 15:52 7,3 C 6,1 C 67 % 993,8 hPa 0,0 l/m 0 min 0 min 0,0 UV-I 62 W/m 36,0 km/h (5 Bft)
09.02.2014 15:54 7,3 C 6,1 C 67 % 993,7 hPa 0,0 l/m 0 min 0 min 0,0 UV-I 56 W/m 10,3 km/h (2 Bft)
09.02.2014 15:56 7,3 C 6,1 C 68 % 993,7 hPa 0,0 l/m 0 min 0 min 0,0 UV-I 60 W/m 36,0 km/h (5 Bft)
09.02.2014 15:58 7,3 C 6,1 C 67 % 993,7 hPa 0,0 l/m 0 min 0 min 0,0 UV-I 53 W/m 25,7 km/h (4 Bft)
09.02.2014 16:00 7,3 C 6,1 C 67 % 993,7 hPa 0,0 l/m 0 min 0 min 0,0 UV-I 54 W/m 15,4 km/h (3 Bft)
09.02.2014 16:02 7,3 C 6,1 C 68 % 993,8 hPa 0,0 l/m 0 min 0 min 0,0 UV-I 47 W/m 23,2 km/h (4 Bft)
09.02.2014 16:04 7,3 C 6,1 C 68 % 993,8 hPa 0,0 l/m 0 min 0 min 0,0 UV-I 54 W/m 25,7 km/h (4 Bft)
09.02.2014 16:06 7,3 C 6,1 C 68 % 993,8 hPa 0,0 l/m 0 min 0 min 0,0 UV-I 53 W/m 25,7 km/h (4 Bft)
09.02.2014 16:08 7,3 C 6,1 C 68 % 993,8 hPa 0,0 l/m 0 min 0 min 0,0 UV-I 47 W/m 20,6 km/h (4 Bft)
09.02.2014 16:10 7,3 C 6,1 C 68 % 993,8 hPa 0,0 l/m 0 min 0 min 0,0 UV-I 46 W/m 25,7 km/h (4 Bft)
09.02.2014 16:12 7,3 C 6,1 C 68 % 993,8 hPa 0,0 l/m 0 min 0 min 0,0 UV-I 46 W/m 15,4 km/h (3 Bft)
09.02.2014 16:14 7,3 C 6,1 C 67 % 993,9 hPa 0,0 l/m 0 min 0 min 0,0 UV-I 42 W/m 18,0 km/h (3 Bft)
09.02.2014 16:16 7,3 C 6,1 C 68 % 993,9 hPa 0,0 l/m 0 min 0 min 0,0 UV-I 46 W/m 20,6 km/h (4 Bft)
09.02.2014 16:18 7,3 C 6,1 C 68 % 993,8 hPa 0,0 l/m 0 min 0 min 0,0 UV-I 44 W/m 15,4 km/h (3 Bft)
09.02.2014 16:20 7,3 C 6,1 C 68 % 993,9 hPa 0,0 l/m 0 min 0 min 0,0 UV-I 46 W/m 18,0 km/h (3 Bft)
09.02.2014 16:22 7,3 C 6,1 C 68 % 993,8 hPa 0,0 l/m 0 min 0 min 0,0 UV-I 49 W/m 25,7 km/h (4 Bft)
09.02.2014 16:24 7,3 C 6,1 C 68 % 993,8 hPa 0,0 l/m 0 min 0 min 0,0 UV-I 47 W/m 33,5 km/h (5 Bft)
09.02.2014 16:26 7,3 C 6,1 C 68 % 993,8 hPa 0,0 l/m 0 min 0 min 0,0 UV-I 42 W/m 25,7 km/h (4 Bft)
09.02.2014 16:28 7,3 C 6,1 C 68 % 993,7 hPa 0,0 l/m 0 min 0 min 0,0 UV-I 40 W/m 20,6 km/h (4 Bft)
09.02.2014 16:30 7,3 C 6,1 C 68 % 993,9 hPa 0,0 l/m 0 min 0 min 0,0 UV-I 42 W/m 23,2 km/h (4 Bft)
09.02.2014 16:32 7,3 C 6,1 C 68 % 993,8 hPa 0,0 l/m 0 min 0 min 0,0 UV-I 40 W/m 15,4 km/h (3 Bft)
09.02.2014 16:34 7,2 C 6,1 C 68 % 993,8 hPa 0,0 l/m 0 min 0 min 0,0 UV-I 37 W/m 25,7 km/h (4 Bft)
09.02.2014 16:36 7,2 C 6,1 C 68 % 993,7 hPa 0,0 l/m 0 min 0 min 0,0 UV-I 39 W/m 20,6 km/h (4 Bft)
09.02.2014 16:38 7,3 C 6,1 C 68 % 993,7 hPa 0,0 l/m 0 min 0 min 0,0 UV-I 46 W/m 23,2 km/h (4 Bft)
09.02.2014 16:40 7,3 C 6,1 C 68 % 993,8 hPa 0,0 l/m 0 min 0 min 0,0 UV-I 33 W/m 15,4 km/h (3 Bft)
09.02.2014 16:42 7,3 C 6,1 C 68 % 993,8 hPa 0,0 l/m 0 min 0 min 0,0 UV-I 30 W/m 12,9 km/h (3 Bft)
09.02.2014 16:44 7,2 C 6,1 C 68 % 993,8 hPa 0,0 l/m 0 min 0 min 0,0 UV-I 30 W/m 15,4 km/h (3 Bft)
09.02.2014 16:46 7,2 C 6,1 C 68 % 993,9 hPa 0,0 l/m 0 min 0 min 0,0 UV-I 25 W/m 10,3 km/h (2 Bft)
09.02.2014 16:48 7,2 C 5,6 C 68 % 993,9 hPa 0,0 l/m 0 min 0 min 0,0 UV-I 19 W/m 20,6 km/h (4 Bft)
09.02.2014 16:50 7,2 C 5,6 C 68 % 993,9 hPa 0,0 l/m 0 min 0 min 0,0 UV-I 19 W/m 18,0 km/h (3 Bft)
09.02.2014 16:52 7,2 C 5,6 C 68 % 993,9 hPa 0,0 l/m 0 min 0 min 0,0 UV-I 21 W/m 30,9 km/h (5 Bft)
09.02.2014 16:54 7,2 C 5,6 C 68 % 994,0 hPa 0,0 l/m 0 min 0 min 0,0 UV-I 18 W/m 20,6 km/h (4 Bft)
09.02.2014 16:56 7,2 C 5,6 C 68 % 993,9 hPa 0,0 l/m 0 min 0 min 0,0 UV-I 18 W/m 18,0 km/h (3 Bft)
09.02.2014 16:58 7,2 C 5,6 C 68 % 993,9 hPa 0,0 l/m 0 min 0 min 0,0 UV-I 16 W/m 15,4 km/h (3 Bft)
09.02.2014 17:00 7,2 C 5,6 C 68 % 993,8 hPa 0,0 l/m 0 min 0 min 0,0 UV-I 12 W/m 12,9 km/h (3 Bft)
09.02.2014 17:02 7,2 C 5,6 C 68 % 993,9 hPa 0,0 l/m 0 min 0 min 0,0 UV-I 12 W/m 30,9 km/h (5 Bft)
09.02.2014 17:04 7,2 C 5,6 C 68 % 993,9 hPa 0,0 l/m 0 min 0 min 0,0 UV-I 12 W/m 20,6 km/h (4 Bft)
09.02.2014 17:06 7,2 C 5,6 C 68 % 994,0 hPa 0,0 l/m 0 min 0 min 0,0 UV-I 14 W/m 28,3 km/h (4 Bft)
09.02.2014 17:08 7,2 C 5,6 C 68 % 994,0 hPa 0,0 l/m 0 min 0 min 0,0 UV-I 16 W/m 23,2 km/h (4 Bft)
09.02.2014 17:10 7,2 C 5,6 C 68 % 994,0 hPa 0,0 l/m 0 min 0 min 0,0 UV-I 14 W/m 25,7 km/h (4 Bft)
09.02.2014 17:12 7,2 C 5,6 C 68 % 994,1 hPa 0,0 l/m 0 min 0 min 0,0 UV-I 12 W/m 18,0 km/h (3 Bft)
09.02.2014 17:14 7,2 C 5,6 C 68 % 994,0 hPa 0,0 l/m 0 min 0 min 0,0 UV-I 12 W/m 25,7 km/h (4 Bft)
09.02.2014 17:16 7,2 C 5,6 C 68 % 994,0 hPa 0,0 l/m 0 min 0 min 0,0 UV-I 14 W/m 25,7 km/h (4 Bft)
09.02.2014 17:18 7,2 C 5,6 C 68 % 994,1 hPa 0,0 l/m 0 min 0 min 0,0 UV-I 12 W/m 12,9 km/h (3 Bft)
09.02.2014 17:20 7,2 C 5,6 C 68 % 994,0 hPa 0,0 l/m 0 min 0 min 0,0 UV-I 11 W/m 12,9 km/h (3 Bft)
09.02.2014 17:22 7,2 C 5,6 C 68 % 994,0 hPa 0,0 l/m 0 min 0 min 0,0 UV-I 9 W/m 12,9 km/h (3 Bft)
09.02.2014 17:24 7,2 C 5,6 C 68 % 994,0 hPa 0,0 l/m 0 min 0 min 0,0 UV-I 9 W/m 12,9 km/h (3 Bft)
09.02.2014 17:26 7,2 C 5,6 C 68 % 994,1 hPa 0,0 l/m 0 min 0 min 0,0 UV-I 7 W/m 28,3 km/h (4 Bft)
09.02.2014 17:28 7,2 C 5,6 C 68 % 994,0 hPa 0,0 l/m 0 min 0 min 0,0 UV-I 5 W/m 25,7 km/h (4 Bft)
09.02.2014 17:30 7,2 C 5,6 C 67 % 994,0 hPa 0,0 l/m 0 min 0 min 0,0 UV-I 5 W/m 25,7 km/h (4 Bft)
09.02.2014 17:32 7,2 C 5,6 C 67 % 994,0 hPa 0,0 l/m 0 min 0 min 0,0 UV-I 5 W/m 25,7 km/h (4 Bft)
09.02.2014 17:34 7,2 C 5,6 C 67 % 994,1 hPa 0,0 l/m 0 min 0 min 0,0 UV-I 5 W/m 15,4 km/h (3 Bft)
09.02.2014 17:36 7,2 C 5,6 C 68 % 994,0 hPa 0,0 l/m 0 min 0 min 0,0 UV-I 0 W/m 10,3 km/h (2 Bft)
09.02.2014 17:38 7,2 C 5,6 C 68 % 994,1 hPa 0,0 l/m 0 min 0 min 0,0 UV-I 0 W/m 7,7 km/h (2 Bft)
09.02.2014 17:40 7,2 C 5,6 C 68 % 994,2 hPa 0,0 l/m 0 min 0 min 0,0 UV-I 0 W/m 18,0 km/h (3 Bft)
09.02.2014 17:42 7,2 C 5,6 C 68 % 994,1 hPa 0,0 l/m 0 min 0 min 0,0 UV-I 0 W/m 7,7 km/h (2 Bft)
09.02.2014 17:44 7,2 C 5,6 C 68 % 994,2 hPa 0,0 l/m 0 min 0 min 0,0 UV-I 0 W/m 12,9 km/h (3 Bft)
09.02.2014 17:46 7,2 C 5,6 C 68 % 994,1 hPa 0,0 l/m 0 min 0 min 0,0 UV-I 0 W/m 12,9 km/h (3 Bft)
09.02.2014 17:48 7,2 C 5,6 C 68 % 994,2 hPa 0,0 l/m 0 min 0 min 0,0 UV-I 0 W/m 20,6 km/h (4 Bft)
09.02.2014 17:50 7,2 C 5,6 C 68 % 994,2 hPa 0,0 l/m 0 min 0 min 0,0 UV-I 0 W/m 18,0 km/h (3 Bft)
09.02.2014 17:52 7,2 C 5,6 C 68 % 994,2 hPa 0,0 l/m 0 min 0 min 0,0 UV-I 0 W/m 18,0 km/h (3 Bft)
09.02.2014 17:54 7,2 C 5,6 C 68 % 994,2 hPa 0,0 l/m 0 min 0 min 0,0 UV-I 0 W/m 10,3 km/h (2 Bft)
09.02.2014 17:56 7,1 C 5,6 C 68 % 994,3 hPa 0,0 l/m 0 min 0 min 0,0 UV-I 0 W/m 25,7 km/h (4 Bft)
09.02.2014 17:58 7,1 C 5,6 C 68 % 994,3 hPa 0,0 l/m 0 min 0 min 0,0 UV-I 0 W/m 23,2 km/h (4 Bft)
09.02.2014 18:00 7,1 C 5,6 C 68 % 994,3 hPa 0,0 l/m 0 min 0 min 0,0 UV-I 0 W/m 23,2 km/h (4 Bft)
09.02.2014 18:02 7,1 C 5,6 C 68 % 994,3 hPa 0,0 l/m 0 min 0 min 0,0 UV-I 0 W/m 20,6 km/h (4 Bft)
09.02.2014 18:04 7,1 C 5,6 C 68 % 994,3 hPa 0,0 l/m 0 min 0 min 0,0 UV-I 0 W/m 23,2 km/h (4 Bft)
09.02.2014 18:06 7,1 C 5,6 C 68 % 994,2 hPa 0,0 l/m 0 min 0 min 0,0 UV-I 0 W/m 28,3 km/h (4 Bft)
09.02.2014 18:08 7,1 C 5,6 C 68 % 994,6 hPa 0,0 l/m 0 min 0 min 0,0 UV-I 0 W/m 20,6 km/h (4 Bft)
09.02.2014 18:10 7,1 C 5,6 C 68 % 994,4 hPa 0,0 l/m 0 min 0 min 0,0 UV-I 0 W/m 23,2 km/h (4 Bft)
09.02.2014 18:12 7,1 C 5,6 C 68 % 994,6 hPa 0,0 l/m 0 min 0 min 0,0 UV-I 0 W/m 20,6 km/h (4 Bft)
09.02.2014 18:14 7,1 C 5,6 C 68 % 994,6 hPa 0,0 l/m 0 min 0 min 0,0 UV-I 0 W/m 20,6 km/h (4 Bft)
09.02.2014 18:16 7,1 C 5,6 C 68 % 994,5 hPa 0,0 l/m 0 min 0 min 0,0 UV-I 0 W/m 18,0 km/h (3 Bft)
09.02.2014 18:18 7,1 C 5,6 C 68 % 994,6 hPa 0,0 l/m 0 min 0 min 0,0 UV-I 0 W/m 23,2 km/h (4 Bft)
09.02.2014 18:20 7,1 C 5,6 C 68 % 994,6 hPa 0,0 l/m 0 min 0 min 0,0 UV-I 0 W/m 23,2 km/h (4 Bft)
09.02.2014 18:22 7,1 C 5,6 C 68 % 994,6 hPa 0,0 l/m 0 min 0 min 0,0 UV-I 0 W/m 20,6 km/h (4 Bft)
09.02.2014 18:24 7,1 C 5,6 C 68 % 994,6 hPa 0,0 l/m 0 min 0 min 0,0 UV-I 0 W/m 15,4 km/h (3 Bft)
09.02.2014 18:26 7,1 C 5,6 C 68 % 994,7 hPa 0,0 l/m 0 min 0 min 0,0 UV-I 0 W/m 20,6 km/h (4 Bft)
09.02.2014 18:28 7,1 C 5,6 C 68 % 994,8 hPa 0,0 l/m 0 min 0 min 0,0 UV-I 0 W/m 30,9 km/h (5 Bft)
09.02.2014 18:30 7,1 C 5,6 C 68 % 994,8 hPa 0,0 l/m 0 min 0 min 0,0 UV-I 0 W/m 23,2 km/h (4 Bft)
09.02.2014 18:32 7,1 C 5,6 C 68 % 994,7 hPa 0,0 l/m 0 min 0 min 0,0 UV-I 0 W/m 18,0 km/h (3 Bft)
09.02.2014 18:34 7,1 C 5,6 C 68 % 994,7 hPa 0,0 l/m 0 min 0 min 0,0 UV-I 0 W/m 18,0 km/h (3 Bft)
09.02.2014 18:36 7,0 C 5,6 C 68 % 994,7 hPa 0,0 l/m 0 min 0 min 0,0 UV-I 0 W/m 20,6 km/h (4 Bft)
09.02.2014 18:38 7,0 C 5,6 C 68 % 994,8 hPa 0,0 l/m 0 min 0 min 0,0 UV-I 0 W/m 15,4 km/h (3 Bft)
09.02.2014 18:40 7,0 C 5,6 C 68 % 994,8 hPa 0,0 l/m 0 min 0 min 0,0 UV-I 0 W/m 10,3 km/h (2 Bft)
09.02.2014 18:42 7,0 C 5,6 C 68 % 994,8 hPa 0,0 l/m 0 min 0 min 0,0 UV-I 0 W/m 18,0 km/h (3 Bft)
09.02.2014 18:44 7,0 C 5,6 C 68 % 994,8 hPa 0,0 l/m 0 min 0 min 0,0 UV-I 0 W/m 38,6 km/h (5 Bft)
09.02.2014 18:46 7,0 C 5,6 C 68 % 994,9 hPa 0,0 l/m 0 min 0 min 0,0 UV-I 0 W/m 23,2 km/h (4 Bft)
09.02.2014 18:48 7,0 C 5,6 C 68 % 995,0 hPa 0,0 l/m 0 min 0 min 0,0 UV-I 0 W/m 23,2 km/h (4 Bft)
09.02.2014 18:50 7,0 C 5,6 C 68 % 995,0 hPa 0,0 l/m 0 min 0 min 0,0 UV-I 0 W/m 20,6 km/h (4 Bft)
09.02.2014 18:52 7,0 C 5,0 C 68 % 995,1 hPa 0,0 l/m 0 min 0 min 0,0 UV-I 0 W/m 18,0 km/h (3 Bft)
09.02.2014 18:54 7,0 C 5,6 C 68 % 995,0 hPa 0,0 l/m 0 min 0 min 0,0 UV-I 0 W/m 20,6 km/h (4 Bft)
09.02.2014 18:56 7,0 C 5,6 C 68 % 994,9 hPa 0,0 l/m 0 min 0 min 0,0 UV-I 0 W/m 23,2 km/h (4 Bft)
09.02.2014 18:58 7,0 C 5,0 C 68 % 995,0 hPa 0,0 l/m 0 min 0 min 0,0 UV-I 0 W/m 15,4 km/h (3 Bft)
09.02.2014 19:00 6,9 C 5,0 C 68 % 995,0 hPa 0,0 l/m 0 min 0 min 0,0 UV-I 0 W/m 23,2 km/h (4 Bft)
09.02.2014 19:02 6,9 C 5,0 C 68 % 995,0 hPa 0,0 l/m 0 min 0 min 0,0 UV-I 0 W/m 15,4 km/h (3 Bft)
09.02.2014 19:04 6,9 C 5,0 C 68 % 995,0 hPa 0,0 l/m 0 min 0 min 0,0 UV-I 0 W/m 5,1 km/h (1 Bft)
09.02.2014 19:06 6,9 C 5,0 C 68 % 995,2 hPa 0,0 l/m 0 min 0 min 0,0 UV-I 0 W/m 18,0 km/h (3 Bft)
09.02.2014 19:08 6,9 C 5,0 C 68 % 995,1 hPa 0,0 l/m 0 min 0 min 0,0 UV-I 0 W/m 20,6 km/h (4 Bft)
09.02.2014 19:10 6,9 C 5,0 C 68 % 995,1 hPa 0,0 l/m 0 min 0 min 0,0 UV-I 0 W/m 18,0 km/h (3 Bft)
09.02.2014 19:12 6,9 C 5,0 C 68 % 995,2 hPa 0,0 l/m 0 min 0 min 0,0 UV-I 0 W/m 28,3 km/h (4 Bft)
09.02.2014 19:14 6,9 C 5,0 C 68 % 995,2 hPa 0,0 l/m 0 min 0 min 0,0 UV-I 0 W/m 18,0 km/h (3 Bft)
09.02.2014 19:16 6,9 C 5,6 C 68 % 995,2 hPa 0,0 l/m 0 min 0 min 0,0 UV-I 0 W/m 15,4 km/h (3 Bft)
09.02.2014 19:18 6,9 C 5,6 C 68 % 995,2 hPa 0,0 l/m 0 min 0 min 0,0 UV-I 0 W/m 18,0 km/h (3 Bft)
09.02.2014 19:20 6,9 C 5,6 C 68 % 995,2 hPa 0,0 l/m 0 min 0 min 0,0 UV-I 0 W/m 12,9 km/h (3 Bft)
09.02.2014 19:22 6,9 C 5,0 C 68 % 995,3 hPa 0,0 l/m 0 min 0 min 0,0 UV-I 0 W/m 15,4 km/h (3 Bft)
09.02.2014 19:24 6,9 C 5,6 C 68 % 995,3 hPa 0,0 l/m 0 min 0 min 0,0 UV-I 0 W/m 15,4 km/h (3 Bft)
09.02.2014 19:26 6,9 C 5,6 C 68 % 995,3 hPa 0,0 l/m 0 min 0 min 0,0 UV-I 0 W/m 18,0 km/h (3 Bft)
09.02.2014 19:28 6,9 C 5,6 C 68 % 995,3 hPa 0,0 l/m 0 min 0 min 0,0 UV-I 0 W/m 20,6 km/h (4 Bft)
09.02.2014 19:30 6,9 C 5,6 C 68 % 995,4 hPa 0,0 l/m 0 min 0 min 0,0 UV-I 0 W/m 10,3 km/h (2 Bft)
09.02.2014 19:32 6,9 C 5,6 C 68 % 995,3 hPa 0,0 l/m 0 min 0 min 0,0 UV-I 0 W/m 23,2 km/h (4 Bft)
09.02.2014 19:34 6,9 C 5,0 C 68 % 995,3 hPa 0,0 l/m 0 min 0 min 0,0 UV-I 0 W/m 18,0 km/h (3 Bft)
09.02.2014 19:36 6,9 C 5,0 C 68 % 995,4 hPa 0,0 l/m 0 min 0 min 0,0 UV-I 0 W/m 20,6 km/h (4 Bft)
09.02.2014 19:38 6,9 C 5,0 C 68 % 995,3 hPa 0,0 l/m 0 min 0 min 0,0 UV-I 0 W/m 18,0 km/h (3 Bft)
09.02.2014 19:40 6,9 C 5,0 C 68 % 995,4 hPa 0,0 l/m 0 min 0 min 0,0 UV-I 0 W/m 20,6 km/h (4 Bft)
09.02.2014 19:42 6,9 C 5,0 C 68 % 995,4 hPa 0,0 l/m 0 min 0 min 0,0 UV-I 0 W/m 15,4 km/h (3 Bft)
09.02.2014 19:44 6,9 C 5,0 C 68 % 995,4 hPa 0,0 l/m 0 min 0 min 0,0 UV-I 0 W/m 15,4 km/h (3 Bft)
09.02.2014 19:46 6,8 C 5,0 C 68 % 995,5 hPa 0,0 l/m 0 min 0 min 0,0 UV-I 0 W/m 18,0 km/h (3 Bft)
09.02.2014 19:48 6,8 C 5,0 C 68 % 995,5 hPa 0,0 l/m 0 min 0 min 0,0 UV-I 0 W/m 30,9 km/h (5 Bft)
09.02.2014 19:50 6,8 C 5,0 C 69 % 995,5 hPa 0,0 l/m 0 min 0 min 0,0 UV-I 0 W/m 18,0 km/h (3 Bft)
09.02.2014 19:52 6,8 C 5,0 C 69 % 995,6 hPa 0,0 l/m 0 min 0 min 0,0 UV-I 0 W/m 33,5 km/h (5 Bft)
09.02.2014 19:54 6,8 C 5,0 C 69 % 995,6 hPa 0,0 l/m 0 min 0 min 0,0 UV-I 0 W/m 18,0 km/h (3 Bft)
09.02.2014 19:56 6,8 C 5,0 C 69 % 995,7 hPa 0,0 l/m 0 min 0 min 0,0 UV-I 0 W/m 12,9 km/h (3 Bft)
09.02.2014 19:58 6,8 C 5,0 C 69 % 995,8 hPa 0,0 l/m 0 min 0 min 0,0 UV-I 0 W/m 23,2 km/h (4 Bft)
09.02.2014 20:00 6,8 C 5,0 C 69 % 995,7 hPa 0,0 l/m 0 min 0 min 0,0 UV-I 0 W/m 25,7 km/h (4 Bft)
09.02.2014 20:02 6,8 C 5,0 C 69 % 995,9 hPa 0,0 l/m 0 min 0 min 0,0 UV-I 0 W/m 25,7 km/h (4 Bft)
09.02.2014 20:04 6,8 C 5,0 C 69 % 995,9 hPa 0,0 l/m 0 min 0 min 0,0 UV-I 0 W/m 23,2 km/h (4 Bft)
09.02.2014 20:06 6,8 C 5,0 C 69 % 995,9 hPa 0,0 l/m 0 min 0 min 0,0 UV-I 0 W/m 18,0 km/h (3 Bft)
09.02.2014 20:08 6,8 C 5,0 C 70 % 995,9 hPa 0,0 l/m 0 min 0 min 0,0 UV-I 0 W/m 12,9 km/h (3 Bft)
09.02.2014 20:10 6,8 C 5,0 C 70 % 995,9 hPa 0,0 l/m 0 min 0 min 0,0 UV-I 0 W/m 18,0 km/h (3 Bft)
09.02.2014 20:12 6,8 C 5,0 C 70 % 995,9 hPa 0,0 l/m 0 min 0 min 0,0 UV-I 0 W/m 12,9 km/h (3 Bft)
09.02.2014 20:14 6,7 C 5,0 C 70 % 995,9 hPa 0,0 l/m 0 min 0 min 0,0 UV-I 0 W/m 12,9 km/h (3 Bft)
09.02.2014 20:16 6,7 C 5,0 C 70 % 995,8 hPa 0,0 l/m 0 min 0 min 0,0 UV-I 0 W/m 20,6 km/h (4 Bft)
09.02.2014 20:18 6,7 C 5,0 C 70 % 995,9 hPa 0,0 l/m 0 min 0 min 0,0 UV-I 0 W/m 15,4 km/h (3 Bft)
09.02.2014 20:20 6,7 C 5,0 C 71 % 995,9 hPa 0,0 l/m 0 min 0 min 0,0 UV-I 0 W/m 0,0 km/h (0 Bft)
09.02.2014 20:22 6,7 C 5,0 C 71 % 995,9 hPa 0,0 l/m 0 min 0 min 0,0 UV-I 0 W/m 15,4 km/h (3 Bft)
09.02.2014 20:24 6,6 C 5,0 C 71 % 996,0 hPa 0,0 l/m 0 min 0 min 0,0 UV-I 0 W/m 20,6 km/h (4 Bft)
09.02.2014 20:26 6,6 C 5,0 C 71 % 996,0 hPa 0,0 l/m 0 min 0 min 0,0 UV-I 0 W/m 18,0 km/h (3 Bft)
09.02.2014 20:28 6,6 C 5,0 C 71 % 996,0 hPa 0,0 l/m 0 min 0 min 0,0 UV-I 0 W/m 15,4 km/h (3 Bft)
09.02.2014 20:30 6,6 C 5,0 C 71 % 996,0 hPa 0,0 l/m 0 min 2 min 0,0 UV-I 0 W/m 12,9 km/h (3 Bft)
09.02.2014 20:32 6,6 C 5,0 C 72 % 995,9 hPa 0,0 l/m 0 min 2 min 0,0 UV-I 0 W/m 12,9 km/h (3 Bft)
09.02.2014 20:34 6,6 C 4,4 C 72 % 995,9 hPa 0,0 l/m 0 min 0 min 0,0 UV-I 0 W/m 10,3 km/h (2 Bft)
09.02.2014 20:36 6,5 C 4,4 C 72 % 995,9 hPa 0,0 l/m 0 min 0 min 0,0 UV-I 0 W/m 25,7 km/h (4 Bft)
09.02.2014 20:38 6,5 C 4,4 C 72 % 996,1 hPa 0,0 l/m 0 min 0 min 0,0 UV-I 0 W/m 15,4 km/h (3 Bft)
09.02.2014 20:40 6,4 C 4,4 C 72 % 996,1 hPa 0,0 l/m 0 min 0 min 0,0 UV-I 0 W/m 18,0 km/h (3 Bft)
09.02.2014 20:42 6,4 C 4,4 C 72 % 996,1 hPa 0,0 l/m 0 min 0 min 0,0 UV-I 0 W/m 15,4 km/h (3 Bft)
09.02.2014 20:44 6,4 C 4,4 C 72 % 996,1 hPa 0,0 l/m 0 min 0 min 0,0 UV-I 0 W/m 15,4 km/h (3 Bft)
09.02.2014 20:46 6,4 C 4,4 C 72 % 996,1 hPa 0,0 l/m 0 min 0 min 0,0 UV-I 0 W/m 10,3 km/h (2 Bft)
09.02.2014 20:48 6,4 C 4,4 C 73 % 996,1 hPa 0,0 l/m 0 min 0 min 0,0 UV-I 0 W/m 15,4 km/h (3 Bft)
09.02.2014 20:50 6,3 C 4,4 C 73 % 996,1 hPa 0,0 l/m 0 min 0 min 0,0 UV-I 0 W/m 10,3 km/h (2 Bft)
09.02.2014 20:52 6,3 C 4,4 C 73 % 996,2 hPa 0,0 l/m 0 min 0 min 0,0 UV-I 0 W/m 15,4 km/h (3 Bft)
09.02.2014 20:54 6,3 C 4,4 C 73 % 996,3 hPa 0,0 l/m 0 min 0 min 0,0 UV-I 0 W/m 18,0 km/h (3 Bft)
09.02.2014 20:56 6,2 C 4,4 C 73 % 996,3 hPa 0,0 l/m 0 min 0 min 0,0 UV-I 0 W/m 15,4 km/h (3 Bft)
09.02.2014 20:58 6,2 C 4,4 C 73 % 996,4 hPa 0,0 l/m 0 min 0 min 0,0 UV-I 0 W/m 12,9 km/h (3 Bft)
09.02.2014 21:00 6,2 C 4,4 C 73 % 996,3 hPa 0,0 l/m 0 min 0 min 0,0 UV-I 0 W/m 36,0 km/h (5 Bft)
09.02.2014 21:02 6,2 C 5,0 C 73 % 996,5 hPa 0,0 l/m 0 min 2 min 0,0 UV-I 0 W/m 41,2 km/h (6 Bft)
09.02.2014 21:04 6,2 C 5,0 C 74 % 996,3 hPa 0,0 l/m 0 min 0 min 0,0 UV-I 0 W/m 28,3 km/h (4 Bft)
09.02.2014 21:06 6,3 C 5,0 C 74 % 996,3 hPa 0,0 l/m 0 min 0 min 0,0 UV-I 0 W/m 12,9 km/h (3 Bft)
09.02.2014 21:08 6,3 C 5,0 C 74 % 996,3 hPa 0,0 l/m 0 min 0 min 0,0 UV-I 0 W/m 28,3 km/h (4 Bft)
09.02.2014 21:10 6,3 C 5,0 C 74 % 996,3 hPa 0,0 l/m 0 min 0 min 0,0 UV-I 0 W/m 23,2 km/h (4 Bft)
09.02.2014 21:12 6,3 C 5,0 C 74 % 996,2 hPa 0,0 l/m 0 min 0 min 0,0 UV-I 0 W/m 20,6 km/h (4 Bft)
09.02.2014 21:14 6,3 C 4,4 C 74 % 996,2 hPa 0,0 l/m 0 min 0 min 0,0 UV-I 0 W/m 18,0 km/h (3 Bft)
09.02.2014 21:16 6,3 C 4,4 C 74 % 996,3 hPa 0,0 l/m 0 min 0 min 0,0 UV-I 0 W/m 28,3 km/h (4 Bft)
09.02.2014 21:18 6,3 C 4,4 C 74 % 996,3 hPa 0,0 l/m 0 min 0 min 0,0 UV-I 0 W/m 15,4 km/h (3 Bft)
09.02.2014 21:20 6,3 C 4,4 C 74 % 996,2 hPa 0,0 l/m 0 min 0 min 0,0 UV-I 0 W/m 20,6 km/h (4 Bft)
09.02.2014 21:22 6,3 C 4,4 C 74 % 996,2 hPa 0,0 l/m 0 min 0 min 0,0 UV-I 0 W/m 15,4 km/h (3 Bft)
09.02.2014 21:24 6,3 C 4,4 C 74 % 996,3 hPa 0,0 l/m 0 min 0 min 0,0 UV-I 0 W/m 12,9 km/h (3 Bft)
09.02.2014 21:26 6,2 C 4,4 C 74 % 996,3 hPa 0,0 l/m 0 min 0 min 0,0 UV-I 0 W/m 10,3 km/h (2 Bft)
09.02.2014 21:28 6,2 C 4,4 C 74 % 996,3 hPa 0,0 l/m 0 min 0 min 0,0 UV-I 0 W/m 15,4 km/h (3 Bft)
09.02.2014 21:30 6,2 C 3,9 C 74 % 996,3 hPa 0,0 l/m 0 min 0 min 0,0 UV-I 0 W/m 10,3 km/h (2 Bft)
09.02.2014 21:32 6,2 C 3,9 C 74 % 996,4 hPa 0,0 l/m 0 min 0 min 0,0 UV-I 0 W/m 20,6 km/h (4 Bft)
09.02.2014 21:34 6,1 C 3,9 C 74 % 996,4 hPa 0,0 l/m 0 min 0 min 0,0 UV-I 0 W/m 10,3 km/h (2 Bft)
09.02.2014 21:36 6,1 C 3,9 C 74 % 996,3 hPa 0,0 l/m 0 min 0 min 0,0 UV-I 0 W/m 18,0 km/h (3 Bft)
09.02.2014 21:38 6,1 C 3,9 C 74 % 996,3 hPa 0,0 l/m 0 min 0 min 0,0 UV-I 0 W/m 23,2 km/h (4 Bft)
09.02.2014 21:40 6,0 C 3,9 C 74 % 996,3 hPa 0,0 l/m 0 min 0 min 0,0 UV-I 0 W/m 20,6 km/h (4 Bft)
09.02.2014 21:42 6,0 C 3,9 C 74 % 996,4 hPa 0,0 l/m 0 min 0 min 0,0 UV-I 0 W/m 18,0 km/h (3 Bft)
09.02.2014 21:44 5,9 C 3,9 C 74 % 996,3 hPa 0,0 l/m 0 min 0 min 0,0 UV-I 0 W/m 12,9 km/h (3 Bft)
09.02.2014 21:46 5,9 C 3,9 C 75 % 996,2 hPa 0,0 l/m 0 min 0 min 0,0 UV-I 0 W/m 12,9 km/h (3 Bft)
09.02.2014 21:48 5,9 C 3,9 C 75 % 996,2 hPa 0,0 l/m 0 min 0 min 0,0 UV-I 0 W/m 12,9 km/h (3 Bft)
09.02.2014 21:50 5,9 C 3,9 C 75 % 996,2 hPa 0,0 l/m 0 min 0 min 0,0 UV-I 0 W/m 15,4 km/h (3 Bft)
09.02.2014 21:52 5,9 C 3,9 C 75 % 996,2 hPa 0,0 l/m 0 min 0 min 0,0 UV-I 0 W/m 18,0 km/h (3 Bft)
09.02.2014 21:54 5,8 C 3,9 C 75 % 996,2 hPa 0,0 l/m 0 min 0 min 0,0 UV-I 0 W/m 23,2 km/h (4 Bft)
09.02.2014 21:56 5,8 C 3,9 C 75 % 996,2 hPa 0,0 l/m 0 min 0 min 0,0 UV-I 0 W/m 10,3 km/h (2 Bft)
09.02.2014 21:58 5,8 C 3,9 C 75 % 996,2 hPa 0,0 l/m 0 min 0 min 0,0 UV-I 0 W/m 15,4 km/h (3 Bft)
09.02.2014 22:00 5,8 C 3,9 C 75 % 996,3 hPa 0,0 l/m 0 min 0 min 0,0 UV-I 0 W/m 7,7 km/h (2 Bft)
09.02.2014 22:02 5,8 C 3,9 C 75 % 996,3 hPa 0,0 l/m 0 min 0 min 0,0 UV-I 0 W/m 12,9 km/h (3 Bft)
09.02.2014 22:04 5,7 C 3,9 C 75 % 996,3 hPa 0,0 l/m 0 min 0 min 0,0 UV-I 0 W/m 7,7 km/h (2 Bft)
09.02.2014 22:06 5,7 C 3,9 C 75 % 996,4 hPa 0,0 l/m 0 min 0 min 0,0 UV-I 0 W/m 15,4 km/h (3 Bft)
09.02.2014 22:08 5,7 C 3,9 C 75 % 996,4 hPa 0,0 l/m 0 min 0 min 0,0 UV-I 0 W/m 12,9 km/h (3 Bft)
09.02.2014 22:10 5,7 C 3,9 C 75 % 996,3 hPa 0,0 l/m 0 min 0 min 0,0 UV-I 0 W/m 12,9 km/h (3 Bft)
09.02.2014 22:12 5,6 C 3,9 C 75 % 996,3 hPa 0,0 l/m 0 min 0 min 0,0 UV-I 0 W/m 15,4 km/h (3 Bft)
09.02.2014 22:14 5,6 C 3,9 C 76 % 996,3 hPa 0,0 l/m 0 min 0 min 0,0 UV-I 0 W/m 12,9 km/h (3 Bft)
09.02.2014 22:16 5,6 C 3,9 C 76 % 996,3 hPa 0,0 l/m 0 min 0 min 0,0 UV-I 0 W/m 10,3 km/h (2 Bft)
09.02.2014 22:18 5,6 C 3,9 C 76 % 996,3 hPa 0,0 l/m 0 min 0 min 0,0 UV-I 0 W/m 15,4 km/h (3 Bft)
09.02.2014 22:20 5,6 C 3,9 C 76 % 996,3 hPa 0,0 l/m 0 min 0 min 0,0 UV-I 0 W/m 15,4 km/h (3 Bft)
09.02.2014 22:22 5,5 C 3,9 C 76 % 996,3 hPa 0,0 l/m 0 min 0 min 0,0 UV-I 0 W/m 12,9 km/h (3 Bft)
09.02.2014 22:24 5,5 C 3,9 C 76 % 996,4 hPa 0,0 l/m 0 min 0 min 0,0 UV-I 0 W/m 12,9 km/h (3 Bft)
09.02.2014 22:26 5,5 C 3,9 C 76 % 996,4 hPa 0,0 l/m 0 min 0 min 0,0 UV-I 0 W/m 15,4 km/h (3 Bft)
09.02.2014 22:28 5,5 C 3,9 C 76 % 996,4 hPa 0,0 l/m 0 min 0 min 0,0 UV-I 0 W/m 5,1 km/h (1 Bft)
09.02.2014 22:30 5,5 C 3,9 C 76 % 996,5 hPa 0,0 l/m 0 min 0 min 0,0 UV-I 0 W/m 15,4 km/h (3 Bft)
09.02.2014 22:32 5,5 C 3,9 C 76 % 996,4 hPa 0,0 l/m 0 min 0 min 0,0 UV-I 0 W/m 10,3 km/h (2 Bft)
09.02.2014 22:34 5,4 C 3,9 C 76 % 996,4 hPa 0,0 l/m 0 min 0 min 0,0 UV-I 0 W/m 18,0 km/h (3 Bft)
09.02.2014 22:36 5,4 C 3,3 C 76 % 996,4 hPa 0,0 l/m 0 min 0 min 0,0 UV-I 0 W/m 2,6 km/h (1 Bft)
09.02.2014 22:38 5,4 C 3,3 C 77 % 996,3 hPa 0,0 l/m 0 min 0 min 0,0 UV-I 0 W/m 2,6 km/h (1 Bft)
09.02.2014 22:40 5,4 C 3,3 C 77 % 996,5 hPa 0,0 l/m 0 min 0 min 0,0 UV-I 0 W/m 15,4 km/h (3 Bft)
09.02.2014 22:42 5,4 C 3,3 C 77 % 996,4 hPa 0,0 l/m 0 min 0 min 0,0 UV-I 0 W/m 12,9 km/h (3 Bft)
09.02.2014 22:44 5,4 C 3,3 C 77 % 996,4 hPa 0,0 l/m 0 min 0 min 0,0 UV-I 0 W/m 10,3 km/h (2 Bft)
09.02.2014 22:46 5,4 C 3,3 C 77 % 996,4 hPa 0,0 l/m 0 min 0 min 0,0 UV-I 0 W/m 12,9 km/h (3 Bft)
09.02.2014 22:48 5,4 C 3,9 C 77 % 996,4 hPa 0,0 l/m 0 min 0 min 0,0 UV-I 0 W/m 15,4 km/h (3 Bft)
09.02.2014 22:50 5,4 C 3,9 C 77 % 996,4 hPa 0,0 l/m 0 min 0 min 0,0 UV-I 0 W/m 12,9 km/h (3 Bft)
09.02.2014 22:52 5,4 C 3,9 C 77 % 996,4 hPa 0,0 l/m 0 min 0 min 0,0 UV-I 0 W/m 12,9 km/h (3 Bft)
09.02.2014 22:54 5,4 C 3,9 C 77 % 996,4 hPa 0,0 l/m 0 min 0 min 0,0 UV-I 0 W/m 10,3 km/h (2 Bft)
09.02.2014 22:56 5,4 C 3,9 C 77 % 996,4 hPa 0,0 l/m 0 min 0 min 0,0 UV-I 0 W/m 15,4 km/h (3 Bft)
09.02.2014 22:58 5,4 C 3,9 C 77 % 996,4 hPa 0,0 l/m 0 min 0 min 0,0 UV-I 0 W/m 5,1 km/h (1 Bft)
09.02.2014 23:00 5,4 C 3,9 C 77 % 996,5 hPa 0,0 l/m 0 min 0 min 0,0 UV-I 0 W/m 15,4 km/h (3 Bft)
09.02.2014 23:02 5,4 C 3,3 C 77 % 996,4 hPa 0,0 l/m 0 min 0 min 0,0 UV-I 0 W/m 10,3 km/h (2 Bft)
09.02.2014 23:04 5,4 C 3,3 C 77 % 996,5 hPa 0,0 l/m 0 min 0 min 0,0 UV-I 0 W/m 2,6 km/h (1 Bft)
09.02.2014 23:06 5,4 C 3,3 C 77 % 996,5 hPa 0,0 l/m 0 min 0 min 0,0 UV-I 0 W/m 0,0 km/h (0 Bft)
09.02.2014 23:08 5,4 C 3,3 C 77 % 996,6 hPa 0,0 l/m 0 min 0 min 0,0 UV-I 0 W/m 18,0 km/h (3 Bft)
09.02.2014 23:10 5,4 C 3,3 C 77 % 996,5 hPa 0,0 l/m 0 min 0 min 0,0 UV-I 0 W/m 10,3 km/h (2 Bft)
09.02.2014 23:12 5,3 C 3,3 C 77 % 996,5 hPa 0,0 l/m 0 min 0 min 0,0 UV-I 0 W/m 12,9 km/h (3 Bft)
09.02.2014 23:14 5,3 C 3,3 C 77 % 996,6 hPa 0,0 l/m 0 min 0 min 0,0 UV-I 0 W/m 18,0 km/h (3 Bft)
09.02.2014 23:16 5,3 C 3,3 C 77 % 996,6 hPa 0,0 l/m 0 min 0 min 0,0 UV-I 0 W/m 15,4 km/h (3 Bft)
09.02.2014 23:18 5,3 C 3,9 C 77 % 996,6 hPa 0,0 l/m 0 min 0 min 0,0 UV-I 0 W/m 15,4 km/h (3 Bft)
09.02.2014 23:20 5,3 C 3,3 C 77 % 996,7 hPa 0,0 l/m 0 min 0 min 0,0 UV-I 0 W/m 15,4 km/h (3 Bft)
09.02.2014 23:22 5,3 C 3,3 C 77 % 996,7 hPa 0,0 l/m 0 min 0 min 0,0 UV-I 0 W/m 15,4 km/h (3 Bft)
09.02.2014 23:24 5,3 C 3,3 C 78 % 996,7 hPa 0,0 l/m 0 min 0 min 0,0 UV-I 0 W/m 18,0 km/h (3 Bft)
09.02.2014 23:26 5,3 C 3,9 C 78 % 996,8 hPa 0,0 l/m 0 min 0 min 0,0 UV-I 0 W/m 15,4 km/h (3 Bft)
09.02.2014 23:28 5,3 C 3,9 C 78 % 996,7 hPa 0,0 l/m 0 min 0 min 0,0 UV-I 0 W/m 15,4 km/h (3 Bft)
09.02.2014 23:30 5,3 C 3,3 C 78 % 996,8 hPa 0,0 l/m 0 min 0 min 0,0 UV-I 0 W/m 5,1 km/h (1 Bft)
09.02.2014 23:32 5,3 C 3,3 C 78 % 996,8 hPa 0,0 l/m 0 min 0 min 0,0 UV-I 0 W/m 12,9 km/h (3 Bft)
09.02.2014 23:34 5,3 C 3,9 C 78 % 996,9 hPa 0,0 l/m 0 min 0 min 0,0 UV-I 0 W/m 12,9 km/h (3 Bft)
09.02.2014 23:36 5,3 C 3,9 C 78 % 996,9 hPa 0,0 l/m 0 min 0 min 0,0 UV-I 0 W/m 10,3 km/h (2 Bft)
09.02.2014 23:38 5,3 C 3,9 C 78 % 996,8 hPa 0,0 l/m 0 min 0 min 0,0 UV-I 0 W/m 10,3 km/h (2 Bft)
09.02.2014 23:40 5,3 C 3,9 C 78 % 997,0 hPa 0,0 l/m 0 min 0 min 0,0 UV-I 0 W/m 25,7 km/h (4 Bft)
09.02.2014 23:42 5,3 C 3,9 C 78 % 996,9 hPa 0,0 l/m 0 min 0 min 0,0 UV-I 0 W/m 18,0 km/h (3 Bft)
09.02.2014 23:44 5,4 C 3,9 C 78 % 996,9 hPa 0,0 l/m 0 min 0 min 0,0 UV-I 0 W/m 10,3 km/h (2 Bft)
09.02.2014 23:46 5,4 C 3,9 C 78 % 996,9 hPa 0,0 l/m 0 min 0 min 0,0 UV-I 0 W/m 10,3 km/h (2 Bft)
09.02.2014 23:48 5,4 C 3,9 C 78 % 996,9 hPa 0,0 l/m 0 min 0 min 0,0 UV-I 0 W/m 15,4 km/h (3 Bft)
09.02.2014 23:50 5,4 C 3,9 C 78 % 996,9 hPa 0,0 l/m 0 min 0 min 0,0 UV-I 0 W/m 12,9 km/h (3 Bft)
09.02.2014 23:52 5,4 C 3,9 C 78 % 996,8 hPa 0,0 l/m 0 min 0 min 0,0 UV-I 0 W/m 15,4 km/h (3 Bft)
09.02.2014 23:54 5,4 C 3,9 C 78 % 996,9 hPa 0,0 l/m 0 min 0 min 0,0 UV-I 0 W/m 18,0 km/h (3 Bft)
09.02.2014 23:56 5,4 C 3,9 C 78 % 996,8 hPa 0,0 l/m 0 min 0 min 0,0 UV-I 0 W/m 18,0 km/h (3 Bft)
09.02.2014 23:58 5,4 C 3,9 C 78 % 996,8 hPa 0,0 l/m 0 min 0 min 0,0 UV-I 0 W/m 18,0 km/h (3 Bft)
_ Min-Zeit 23:12 22:36 14:38 00:00 - - - - - 20:20
Minimum _ 5,3 C 3,3 C 65 % 988,4 hPa - - - - - 0,0 km/h (0 Bft)
_ Max-Zeit 13:26 11:30 03:14 23:40 00:00 09:20 03:00 00:00 11:12 11:52
Maximum _ 7,7 C 7,2 C 80 % 997,0 hPa 0,0 l/m 2 min 2 min 0,0 UV-I 411 W/m 64,4 km/h
S (8 Bft)
Durchschnitt _ 6,5 C 5,0 C 73 % 992,4 hPa #0,0 l/m #1:06 h #28 min. 0,0 UV-I 105 W/m 22,6 km/h (4 Bft)
© 2014 W. Hausmann